<?xml version="1.0" encoding="UTF-8" standalone="no" ?>
<gpx xmlns="http://www.topografix.com/GPX/1/1" xmlns:xsi="http://www.w3.org/2001/XMLSchema-instance" xsi:schemaLocation="http://www.topografix.com/GPX/1/1 http://www.topografix.com/GPX/1/1/gpx.xsd" version="1.1" creator="VisuGPX - https://www.visugpx.com">
  <metadata>
    <name>sortie vers toulouse etape Moissac </name>
  </metadata>
  <trk>
    <name><![CDATA[15319344-sortie vers toulouse etape Moissac]]></name>
    <trkseg>
      <trkpt lat="44.03103" lon="0.37378">
        <ele>106</ele>
        <time>2022-08-09T14:47:24Z</time>
      </trkpt>
      <trkpt lat="44.03097" lon="0.373">
        <ele>109</ele>
        <time>2022-08-09T14:47:34Z</time>
      </trkpt>
      <trkpt lat="44.03073" lon="0.37302">
        <ele>109</ele>
        <time>2022-08-09T14:47:38Z</time>
      </trkpt>
      <trkpt lat="44.03057" lon="0.37302">
        <ele>109</ele>
        <time>2022-08-09T14:47:41Z</time>
      </trkpt>
      <trkpt lat="44.02934" lon="0.37287">
        <ele>110</ele>
        <time>2022-08-09T14:48:03Z</time>
      </trkpt>
      <trkpt lat="44.02919" lon="0.37289">
        <ele>110</ele>
        <time>2022-08-09T14:48:06Z</time>
      </trkpt>
      <trkpt lat="44.02912" lon="0.37293">
        <ele>110</ele>
        <time>2022-08-09T14:48:07Z</time>
      </trkpt>
      <trkpt lat="44.02895" lon="0.37307">
        <ele>109</ele>
        <time>2022-08-09T14:48:11Z</time>
      </trkpt>
      <trkpt lat="44.02869" lon="0.37339">
        <ele>108</ele>
        <time>2022-08-09T14:48:17Z</time>
      </trkpt>
      <trkpt lat="44.02846" lon="0.37363">
        <ele>107</ele>
        <time>2022-08-09T14:48:22Z</time>
      </trkpt>
      <trkpt lat="44.02729" lon="0.37465">
        <ele>106</ele>
        <time>2022-08-09T14:48:47Z</time>
      </trkpt>
      <trkpt lat="44.02709" lon="0.37494">
        <ele>107</ele>
        <time>2022-08-09T14:48:52Z</time>
      </trkpt>
      <trkpt lat="44.02684" lon="0.37562">
        <ele>109</ele>
        <time>2022-08-09T14:49:01Z</time>
      </trkpt>
      <trkpt lat="44.02671" lon="0.37588">
        <ele>110</ele>
        <time>2022-08-09T14:49:05Z</time>
      </trkpt>
      <trkpt lat="44.02656" lon="0.37608">
        <ele>111</ele>
        <time>2022-08-09T14:49:09Z</time>
      </trkpt>
      <trkpt lat="44.02588" lon="0.37687">
        <ele>114</ele>
        <time>2022-08-09T14:49:25Z</time>
      </trkpt>
      <trkpt lat="44.02564" lon="0.37708">
        <ele>115</ele>
        <time>2022-08-09T14:49:30Z</time>
      </trkpt>
      <trkpt lat="44.02548" lon="0.37716">
        <ele>116</ele>
        <time>2022-08-09T14:49:33Z</time>
      </trkpt>
      <trkpt lat="44.02494" lon="0.37722">
        <ele>116</ele>
        <time>2022-08-09T14:49:43Z</time>
      </trkpt>
      <trkpt lat="44.02477" lon="0.37728">
        <ele>116</ele>
        <time>2022-08-09T14:49:46Z</time>
      </trkpt>
      <trkpt lat="44.02462" lon="0.37738">
        <ele>116</ele>
        <time>2022-08-09T14:49:49Z</time>
      </trkpt>
      <trkpt lat="44.02453" lon="0.37747">
        <ele>116</ele>
        <time>2022-08-09T14:49:51Z</time>
      </trkpt>
      <trkpt lat="44.02277" lon="0.38023">
        <ele>115</ele>
        <time>2022-08-09T14:50:38Z</time>
      </trkpt>
      <trkpt lat="44.02195" lon="0.38168">
        <ele>117</ele>
        <time>2022-08-09T14:51:02Z</time>
      </trkpt>
      <trkpt lat="44.02061" lon="0.38377">
        <ele>127</ele>
        <time>2022-08-09T14:51:37Z</time>
      </trkpt>
      <trkpt lat="44.02039" lon="0.38415">
        <ele>129</ele>
        <time>2022-08-09T14:51:44Z</time>
      </trkpt>
      <trkpt lat="44.02028" lon="0.38443">
        <ele>129</ele>
        <time>2022-08-09T14:51:48Z</time>
      </trkpt>
      <trkpt lat="44.01973" lon="0.38632">
        <ele>131</ele>
        <time>2022-08-09T14:52:14Z</time>
      </trkpt>
      <trkpt lat="44.01965" lon="0.38654">
        <ele>131</ele>
        <time>2022-08-09T14:52:17Z</time>
      </trkpt>
      <trkpt lat="44.01956" lon="0.38674">
        <ele>132</ele>
        <time>2022-08-09T14:52:20Z</time>
      </trkpt>
      <trkpt lat="44.0193" lon="0.38726">
        <ele>134</ele>
        <time>2022-08-09T14:52:28Z</time>
      </trkpt>
      <trkpt lat="44.01891" lon="0.38799">
        <ele>138</ele>
        <time>2022-08-09T14:52:40Z</time>
      </trkpt>
      <trkpt lat="44.01847" lon="0.38867">
        <ele>140</ele>
        <time>2022-08-09T14:52:51Z</time>
      </trkpt>
      <trkpt lat="44.01831" lon="0.38897">
        <ele>141</ele>
        <time>2022-08-09T14:52:56Z</time>
      </trkpt>
      <trkpt lat="44.01814" lon="0.38942">
        <ele>144</ele>
        <time>2022-08-09T14:53:03Z</time>
      </trkpt>
      <trkpt lat="44.0178" lon="0.39073">
        <ele>150</ele>
        <time>2022-08-09T14:53:20Z</time>
      </trkpt>
      <trkpt lat="44.01771" lon="0.39091">
        <ele>150</ele>
        <time>2022-08-09T14:53:23Z</time>
      </trkpt>
      <trkpt lat="44.01762" lon="0.39101">
        <ele>150</ele>
        <time>2022-08-09T14:53:25Z</time>
      </trkpt>
      <trkpt lat="44.01747" lon="0.39109">
        <ele>151</ele>
        <time>2022-08-09T14:53:28Z</time>
      </trkpt>
      <trkpt lat="44.01715" lon="0.39113">
        <ele>151</ele>
        <time>2022-08-09T14:53:34Z</time>
      </trkpt>
      <trkpt lat="44.01618" lon="0.3912">
        <ele>152</ele>
        <time>2022-08-09T14:53:51Z</time>
      </trkpt>
      <trkpt lat="44.01602" lon="0.39119">
        <ele>152</ele>
        <time>2022-08-09T14:53:54Z</time>
      </trkpt>
      <trkpt lat="44.01586" lon="0.39115">
        <ele>152</ele>
        <time>2022-08-09T14:53:57Z</time>
      </trkpt>
      <trkpt lat="44.01571" lon="0.39106">
        <ele>153</ele>
        <time>2022-08-09T14:54:00Z</time>
      </trkpt>
      <trkpt lat="44.01519" lon="0.39063">
        <ele>159</ele>
        <time>2022-08-09T14:54:11Z</time>
      </trkpt>
      <trkpt lat="44.01502" lon="0.39052">
        <ele>161</ele>
        <time>2022-08-09T14:54:14Z</time>
      </trkpt>
      <trkpt lat="44.01482" lon="0.39042">
        <ele>163</ele>
        <time>2022-08-09T14:54:18Z</time>
      </trkpt>
      <trkpt lat="44.0147" lon="0.3904">
        <ele>164</ele>
        <time>2022-08-09T14:54:20Z</time>
      </trkpt>
      <trkpt lat="44.0146" lon="0.39041">
        <ele>164</ele>
        <time>2022-08-09T14:54:22Z</time>
      </trkpt>
      <trkpt lat="44.01444" lon="0.39051">
        <ele>166</ele>
        <time>2022-08-09T14:54:25Z</time>
      </trkpt>
      <trkpt lat="44.01438" lon="0.39059">
        <ele>166</ele>
        <time>2022-08-09T14:54:26Z</time>
      </trkpt>
      <trkpt lat="44.01411" lon="0.39113">
        <ele>168</ele>
        <time>2022-08-09T14:54:35Z</time>
      </trkpt>
      <trkpt lat="44.01397" lon="0.39132">
        <ele>168</ele>
        <time>2022-08-09T14:54:38Z</time>
      </trkpt>
      <trkpt lat="44.01379" lon="0.39153">
        <ele>168</ele>
        <time>2022-08-09T14:54:42Z</time>
      </trkpt>
      <trkpt lat="44.01355" lon="0.39173">
        <ele>170</ele>
        <time>2022-08-09T14:54:47Z</time>
      </trkpt>
      <trkpt lat="44.01311" lon="0.392">
        <ele>171</ele>
        <time>2022-08-09T14:54:56Z</time>
      </trkpt>
      <trkpt lat="44.01301" lon="0.39204">
        <ele>171</ele>
        <time>2022-08-09T14:54:58Z</time>
      </trkpt>
      <trkpt lat="44.01283" lon="0.39205">
        <ele>171</ele>
        <time>2022-08-09T14:55:01Z</time>
      </trkpt>
      <trkpt lat="44.01261" lon="0.39197">
        <ele>171</ele>
        <time>2022-08-09T14:55:05Z</time>
      </trkpt>
      <trkpt lat="44.01252" lon="0.39196">
        <ele>171</ele>
        <time>2022-08-09T14:55:07Z</time>
      </trkpt>
      <trkpt lat="44.01244" lon="0.39198">
        <ele>171</ele>
        <time>2022-08-09T14:55:08Z</time>
      </trkpt>
      <trkpt lat="44.0123" lon="0.39205">
        <ele>171</ele>
        <time>2022-08-09T14:55:11Z</time>
      </trkpt>
      <trkpt lat="44.01217" lon="0.39221">
        <ele>170</ele>
        <time>2022-08-09T14:55:14Z</time>
      </trkpt>
      <trkpt lat="44.01153" lon="0.39311">
        <ele>171</ele>
        <time>2022-08-09T14:55:30Z</time>
      </trkpt>
      <trkpt lat="44.01085" lon="0.39398">
        <ele>174</ele>
        <time>2022-08-09T14:55:46Z</time>
      </trkpt>
      <trkpt lat="44.01066" lon="0.39425">
        <ele>174</ele>
        <time>2022-08-09T14:55:51Z</time>
      </trkpt>
      <trkpt lat="44.01051" lon="0.39449">
        <ele>174</ele>
        <time>2022-08-09T14:55:55Z</time>
      </trkpt>
      <trkpt lat="44.01047" lon="0.39463">
        <ele>174</ele>
        <time>2022-08-09T14:55:57Z</time>
      </trkpt>
      <trkpt lat="44.01044" lon="0.39481">
        <ele>174</ele>
        <time>2022-08-09T14:56:00Z</time>
      </trkpt>
      <trkpt lat="44.01046" lon="0.39499">
        <ele>174</ele>
        <time>2022-08-09T14:56:02Z</time>
      </trkpt>
      <trkpt lat="44.01058" lon="0.39564">
        <ele>172</ele>
        <time>2022-08-09T14:56:11Z</time>
      </trkpt>
      <trkpt lat="44.01061" lon="0.39583">
        <ele>171</ele>
        <time>2022-08-09T14:56:13Z</time>
      </trkpt>
      <trkpt lat="44.01061" lon="0.39619">
        <ele>171</ele>
        <time>2022-08-09T14:56:18Z</time>
      </trkpt>
      <trkpt lat="44.01038" lon="0.39785">
        <ele>171</ele>
        <time>2022-08-09T14:56:39Z</time>
      </trkpt>
      <trkpt lat="44.01026" lon="0.39903">
        <ele>170</ele>
        <time>2022-08-09T14:56:54Z</time>
      </trkpt>
      <trkpt lat="44.01022" lon="0.3992">
        <ele>170</ele>
        <time>2022-08-09T14:56:57Z</time>
      </trkpt>
      <trkpt lat="44.01014" lon="0.39939">
        <ele>171</ele>
        <time>2022-08-09T14:57:00Z</time>
      </trkpt>
      <trkpt lat="44.00986" lon="0.39987">
        <ele>173</ele>
        <time>2022-08-09T14:57:08Z</time>
      </trkpt>
      <trkpt lat="44.00972" lon="0.40014">
        <ele>173</ele>
        <time>2022-08-09T14:57:12Z</time>
      </trkpt>
      <trkpt lat="44.00969" lon="0.40026">
        <ele>173</ele>
        <time>2022-08-09T14:57:13Z</time>
      </trkpt>
      <trkpt lat="44.00963" lon="0.40053">
        <ele>173</ele>
        <time>2022-08-09T14:57:17Z</time>
      </trkpt>
      <trkpt lat="44.00954" lon="0.40119">
        <ele>171</ele>
        <time>2022-08-09T14:57:26Z</time>
      </trkpt>
      <trkpt lat="44.00943" lon="0.40152">
        <ele>170</ele>
        <time>2022-08-09T14:57:30Z</time>
      </trkpt>
      <trkpt lat="44.00896" lon="0.40237">
        <ele>171</ele>
        <time>2022-08-09T14:57:44Z</time>
      </trkpt>
      <trkpt lat="44.00889" lon="0.40257">
        <ele>171</ele>
        <time>2022-08-09T14:57:47Z</time>
      </trkpt>
      <trkpt lat="44.00883" lon="0.40282">
        <ele>171</ele>
        <time>2022-08-09T14:57:50Z</time>
      </trkpt>
      <trkpt lat="44.00868" lon="0.40378">
        <ele>169</ele>
        <time>2022-08-09T14:58:03Z</time>
      </trkpt>
      <trkpt lat="44.00855" lon="0.40427">
        <ele>168</ele>
        <time>2022-08-09T14:58:09Z</time>
      </trkpt>
      <trkpt lat="44.00829" lon="0.40512">
        <ele>167</ele>
        <time>2022-08-09T14:58:21Z</time>
      </trkpt>
      <trkpt lat="44.00824" lon="0.40562">
        <ele>165</ele>
        <time>2022-08-09T14:58:28Z</time>
      </trkpt>
      <trkpt lat="44.00822" lon="0.40745">
        <ele>169</ele>
        <time>2022-08-09T14:58:51Z</time>
      </trkpt>
      <trkpt lat="44.00813" lon="0.40865">
        <ele>166</ele>
        <time>2022-08-09T14:59:07Z</time>
      </trkpt>
      <trkpt lat="44.00812" lon="0.40896">
        <ele>165</ele>
        <time>2022-08-09T14:59:11Z</time>
      </trkpt>
      <trkpt lat="44.00815" lon="0.40924">
        <ele>164</ele>
        <time>2022-08-09T14:59:14Z</time>
      </trkpt>
      <trkpt lat="44.0082" lon="0.40948">
        <ele>165</ele>
        <time>2022-08-09T14:59:17Z</time>
      </trkpt>
      <trkpt lat="44.00909" lon="0.41216">
        <ele>173</ele>
        <time>2022-08-09T14:59:55Z</time>
      </trkpt>
      <trkpt lat="44.00914" lon="0.41242">
        <ele>173</ele>
        <time>2022-08-09T14:59:59Z</time>
      </trkpt>
      <trkpt lat="44.00914" lon="0.41279">
        <ele>173</ele>
        <time>2022-08-09T15:00:03Z</time>
      </trkpt>
      <trkpt lat="44.00943" lon="0.41283">
        <ele>172</ele>
        <time>2022-08-09T15:00:09Z</time>
      </trkpt>
      <trkpt lat="44.00982" lon="0.41282">
        <ele>171</ele>
        <time>2022-08-09T15:00:15Z</time>
      </trkpt>
      <trkpt lat="44.01005" lon="0.41352">
        <ele>170</ele>
        <time>2022-08-09T15:00:25Z</time>
      </trkpt>
      <trkpt lat="44.01023" lon="0.41403">
        <ele>169</ele>
        <time>2022-08-09T15:00:33Z</time>
      </trkpt>
      <trkpt lat="44.01046" lon="0.41458">
        <ele>169</ele>
        <time>2022-08-09T15:00:41Z</time>
      </trkpt>
      <trkpt lat="44.01051" lon="0.41482">
        <ele>169</ele>
        <time>2022-08-09T15:00:44Z</time>
      </trkpt>
      <trkpt lat="44.01051" lon="0.41497">
        <ele>169</ele>
        <time>2022-08-09T15:00:46Z</time>
      </trkpt>
      <trkpt lat="44.01047" lon="0.41536">
        <ele>167</ele>
        <time>2022-08-09T15:00:51Z</time>
      </trkpt>
      <trkpt lat="44.01025" lon="0.41687">
        <ele>160</ele>
        <time>2022-08-09T15:01:11Z</time>
      </trkpt>
      <trkpt lat="44.01016" lon="0.41727">
        <ele>159</ele>
        <time>2022-08-09T15:01:16Z</time>
      </trkpt>
      <trkpt lat="44.00984" lon="0.41834">
        <ele>154</ele>
        <time>2022-08-09T15:01:31Z</time>
      </trkpt>
      <trkpt lat="44.00978" lon="0.41875">
        <ele>152</ele>
        <time>2022-08-09T15:01:36Z</time>
      </trkpt>
      <trkpt lat="44.00978" lon="0.41907">
        <ele>152</ele>
        <time>2022-08-09T15:01:40Z</time>
      </trkpt>
      <trkpt lat="44.00982" lon="0.41968">
        <ele>152</ele>
        <time>2022-08-09T15:01:48Z</time>
      </trkpt>
      <trkpt lat="44.0098" lon="0.42002">
        <ele>152</ele>
        <time>2022-08-09T15:01:52Z</time>
      </trkpt>
      <trkpt lat="44.00973" lon="0.42058">
        <ele>151</ele>
        <time>2022-08-09T15:02:00Z</time>
      </trkpt>
      <trkpt lat="44.00973" lon="0.42156">
        <ele>150</ele>
        <time>2022-08-09T15:02:12Z</time>
      </trkpt>
      <trkpt lat="44.00969" lon="0.422">
        <ele>150</ele>
        <time>2022-08-09T15:02:18Z</time>
      </trkpt>
      <trkpt lat="44.00961" lon="0.42254">
        <ele>149</ele>
        <time>2022-08-09T15:02:25Z</time>
      </trkpt>
      <trkpt lat="44.00932" lon="0.42385">
        <ele>146</ele>
        <time>2022-08-09T15:02:43Z</time>
      </trkpt>
      <trkpt lat="44.00896" lon="0.42483">
        <ele>142</ele>
        <time>2022-08-09T15:02:57Z</time>
      </trkpt>
      <trkpt lat="44.00877" lon="0.42572">
        <ele>138</ele>
        <time>2022-08-09T15:03:09Z</time>
      </trkpt>
      <trkpt lat="44.00858" lon="0.42633">
        <ele>136</ele>
        <time>2022-08-09T15:03:17Z</time>
      </trkpt>
      <trkpt lat="44.00835" lon="0.42693">
        <ele>136</ele>
        <time>2022-08-09T15:03:26Z</time>
      </trkpt>
      <trkpt lat="44.00742" lon="0.42922">
        <ele>128</ele>
        <time>2022-08-09T15:03:59Z</time>
      </trkpt>
      <trkpt lat="44.00641" lon="0.4314">
        <ele>113</ele>
        <time>2022-08-09T15:04:33Z</time>
      </trkpt>
      <trkpt lat="44.00627" lon="0.43155">
        <ele>112</ele>
        <time>2022-08-09T15:04:36Z</time>
      </trkpt>
      <trkpt lat="44.00612" lon="0.4316">
        <ele>111</ele>
        <time>2022-08-09T15:04:38Z</time>
      </trkpt>
      <trkpt lat="44.00575" lon="0.43154">
        <ele>109</ele>
        <time>2022-08-09T15:04:45Z</time>
      </trkpt>
      <trkpt lat="44.00559" lon="0.43156">
        <ele>108</ele>
        <time>2022-08-09T15:04:48Z</time>
      </trkpt>
      <trkpt lat="44.00546" lon="0.43164">
        <ele>107</ele>
        <time>2022-08-09T15:04:50Z</time>
      </trkpt>
      <trkpt lat="44.00486" lon="0.43224">
        <ele>105</ele>
        <time>2022-08-09T15:05:04Z</time>
      </trkpt>
      <trkpt lat="44.00471" lon="0.43247">
        <ele>104</ele>
        <time>2022-08-09T15:05:08Z</time>
      </trkpt>
      <trkpt lat="44.00463" lon="0.4327">
        <ele>102</ele>
        <time>2022-08-09T15:05:11Z</time>
      </trkpt>
      <trkpt lat="44.00454" lon="0.43304">
        <ele>99</ele>
        <time>2022-08-09T15:05:15Z</time>
      </trkpt>
      <trkpt lat="44.00404" lon="0.43579">
        <ele>94</ele>
        <time>2022-08-09T15:05:52Z</time>
      </trkpt>
      <trkpt lat="44.00451" lon="0.43586">
        <ele>94</ele>
        <time>2022-08-09T15:06:00Z</time>
      </trkpt>
      <trkpt lat="44.00479" lon="0.43585">
        <ele>94</ele>
        <time>2022-08-09T15:06:05Z</time>
      </trkpt>
      <trkpt lat="44.0052" lon="0.43578">
        <ele>94</ele>
        <time>2022-08-09T15:06:13Z</time>
      </trkpt>
      <trkpt lat="44.00642" lon="0.43528">
        <ele>94</ele>
        <time>2022-08-09T15:06:35Z</time>
      </trkpt>
      <trkpt lat="44.00666" lon="0.43523">
        <ele>94</ele>
        <time>2022-08-09T15:06:39Z</time>
      </trkpt>
      <trkpt lat="44.00686" lon="0.43524">
        <ele>94</ele>
        <time>2022-08-09T15:06:43Z</time>
      </trkpt>
      <trkpt lat="44.00704" lon="0.43531">
        <ele>94</ele>
        <time>2022-08-09T15:06:46Z</time>
      </trkpt>
      <trkpt lat="44.00718" lon="0.43546">
        <ele>94</ele>
        <time>2022-08-09T15:06:50Z</time>
      </trkpt>
      <trkpt lat="44.0073" lon="0.4357">
        <ele>93</ele>
        <time>2022-08-09T15:06:53Z</time>
      </trkpt>
      <trkpt lat="44.00741" lon="0.43607">
        <ele>93</ele>
        <time>2022-08-09T15:06:58Z</time>
      </trkpt>
      <trkpt lat="44.00743" lon="0.4362">
        <ele>93</ele>
        <time>2022-08-09T15:07:00Z</time>
      </trkpt>
      <trkpt lat="44.00745" lon="0.43631">
        <ele>92</ele>
        <time>2022-08-09T15:07:02Z</time>
      </trkpt>
      <trkpt lat="44.00754" lon="0.43679">
        <ele>92</ele>
        <time>2022-08-09T15:07:08Z</time>
      </trkpt>
      <trkpt lat="44.00763" lon="0.43714">
        <ele>93</ele>
        <time>2022-08-09T15:07:13Z</time>
      </trkpt>
      <trkpt lat="44.00776" lon="0.43744">
        <ele>93</ele>
        <time>2022-08-09T15:07:17Z</time>
      </trkpt>
      <trkpt lat="44.0079" lon="0.43767">
        <ele>93</ele>
        <time>2022-08-09T15:07:21Z</time>
      </trkpt>
      <trkpt lat="44.00778" lon="0.43855">
        <ele>96</ele>
        <time>2022-08-09T15:07:32Z</time>
      </trkpt>
      <trkpt lat="44.00768" lon="0.43899">
        <ele>100</ele>
        <time>2022-08-09T15:07:38Z</time>
      </trkpt>
      <trkpt lat="44.00757" lon="0.43927">
        <ele>102</ele>
        <time>2022-08-09T15:07:42Z</time>
      </trkpt>
      <trkpt lat="44.00724" lon="0.4396">
        <ele>106</ele>
        <time>2022-08-09T15:07:50Z</time>
      </trkpt>
      <trkpt lat="44.00638" lon="0.44031">
        <ele>108</ele>
        <time>2022-08-09T15:08:07Z</time>
      </trkpt>
      <trkpt lat="44.00596" lon="0.44081">
        <ele>111</ele>
        <time>2022-08-09T15:08:17Z</time>
      </trkpt>
      <trkpt lat="44.0057" lon="0.44125">
        <ele>113</ele>
        <time>2022-08-09T15:08:25Z</time>
      </trkpt>
      <trkpt lat="44.00555" lon="0.44164">
        <ele>115</ele>
        <time>2022-08-09T15:08:30Z</time>
      </trkpt>
      <trkpt lat="44.00551" lon="0.44197">
        <ele>116</ele>
        <time>2022-08-09T15:08:35Z</time>
      </trkpt>
      <trkpt lat="44.0056" lon="0.44235">
        <ele>119</ele>
        <time>2022-08-09T15:08:40Z</time>
      </trkpt>
      <trkpt lat="44.00574" lon="0.44276">
        <ele>122</ele>
        <time>2022-08-09T15:08:45Z</time>
      </trkpt>
      <trkpt lat="44.00586" lon="0.44405">
        <ele>127</ele>
        <time>2022-08-09T15:09:02Z</time>
      </trkpt>
      <trkpt lat="44.00608" lon="0.44493">
        <ele>129</ele>
        <time>2022-08-09T15:09:14Z</time>
      </trkpt>
      <trkpt lat="44.00627" lon="0.44579">
        <ele>132</ele>
        <time>2022-08-09T15:09:26Z</time>
      </trkpt>
      <trkpt lat="44.00636" lon="0.4465">
        <ele>136</ele>
        <time>2022-08-09T15:09:35Z</time>
      </trkpt>
      <trkpt lat="44.00638" lon="0.4468">
        <ele>137</ele>
        <time>2022-08-09T15:09:39Z</time>
      </trkpt>
      <trkpt lat="44.00632" lon="0.44712">
        <ele>139</ele>
        <time>2022-08-09T15:09:43Z</time>
      </trkpt>
      <trkpt lat="44.00589" lon="0.44829">
        <ele>143</ele>
        <time>2022-08-09T15:10:00Z</time>
      </trkpt>
      <trkpt lat="44.00577" lon="0.44879">
        <ele>144</ele>
        <time>2022-08-09T15:10:06Z</time>
      </trkpt>
      <trkpt lat="44.00569" lon="0.44957">
        <ele>146</ele>
        <time>2022-08-09T15:10:16Z</time>
      </trkpt>
      <trkpt lat="44.00573" lon="0.4502">
        <ele>150</ele>
        <time>2022-08-09T15:10:25Z</time>
      </trkpt>
      <trkpt lat="44.00587" lon="0.45084">
        <ele>153</ele>
        <time>2022-08-09T15:10:33Z</time>
      </trkpt>
      <trkpt lat="44.00674" lon="0.45259">
        <ele>162</ele>
        <time>2022-08-09T15:11:00Z</time>
      </trkpt>
      <trkpt lat="44.00767" lon="0.45437">
        <ele>171</ele>
        <time>2022-08-09T15:11:29Z</time>
      </trkpt>
      <trkpt lat="44.00778" lon="0.45445">
        <ele>171</ele>
        <time>2022-08-09T15:11:31Z</time>
      </trkpt>
      <trkpt lat="44.00779" lon="0.45442">
        <ele>171</ele>
        <time>2022-08-09T15:11:31Z</time>
      </trkpt>
      <trkpt lat="44.00778" lon="0.45445">
        <ele>171</ele>
        <time>2022-08-09T15:11:32Z</time>
      </trkpt>
      <trkpt lat="44.00773" lon="0.4547">
        <ele>172</ele>
        <time>2022-08-09T15:11:35Z</time>
      </trkpt>
      <trkpt lat="44.00771" lon="0.45492">
        <ele>172</ele>
        <time>2022-08-09T15:11:38Z</time>
      </trkpt>
      <trkpt lat="44.0077" lon="0.45519">
        <ele>172</ele>
        <time>2022-08-09T15:11:41Z</time>
      </trkpt>
      <trkpt lat="44.00791" lon="0.45673">
        <ele>170</ele>
        <time>2022-08-09T15:12:01Z</time>
      </trkpt>
      <trkpt lat="44.00827" lon="0.4601">
        <ele>183</ele>
        <time>2022-08-09T15:12:45Z</time>
      </trkpt>
      <trkpt lat="44.00821" lon="0.4605">
        <ele>185</ele>
        <time>2022-08-09T15:12:50Z</time>
      </trkpt>
      <trkpt lat="44.00653" lon="0.47019">
        <ele>194</ele>
        <time>2022-08-09T15:14:58Z</time>
      </trkpt>
      <trkpt lat="44.00628" lon="0.47114">
        <ele>195</ele>
        <time>2022-08-09T15:15:11Z</time>
      </trkpt>
      <trkpt lat="44.00586" lon="0.47215">
        <ele>195</ele>
        <time>2022-08-09T15:15:26Z</time>
      </trkpt>
      <trkpt lat="44.00537" lon="0.47304">
        <ele>194</ele>
        <time>2022-08-09T15:15:40Z</time>
      </trkpt>
      <trkpt lat="44.00515" lon="0.47332">
        <ele>195</ele>
        <time>2022-08-09T15:15:45Z</time>
      </trkpt>
      <trkpt lat="44.00492" lon="0.47339">
        <ele>196</ele>
        <time>2022-08-09T15:15:49Z</time>
      </trkpt>
      <trkpt lat="44.00419" lon="0.47337">
        <ele>198</ele>
        <time>2022-08-09T15:16:02Z</time>
      </trkpt>
      <trkpt lat="44.00395" lon="0.47342">
        <ele>199</ele>
        <time>2022-08-09T15:16:07Z</time>
      </trkpt>
      <trkpt lat="44.00355" lon="0.47369">
        <ele>202</ele>
        <time>2022-08-09T15:16:15Z</time>
      </trkpt>
      <trkpt lat="44.00325" lon="0.47384">
        <ele>204</ele>
        <time>2022-08-09T15:16:20Z</time>
      </trkpt>
      <trkpt lat="44.0031" lon="0.47384">
        <ele>204</ele>
        <time>2022-08-09T15:16:23Z</time>
      </trkpt>
      <trkpt lat="44.00295" lon="0.4738">
        <ele>204</ele>
        <time>2022-08-09T15:16:26Z</time>
      </trkpt>
      <trkpt lat="44.00264" lon="0.47356">
        <ele>204</ele>
        <time>2022-08-09T15:16:32Z</time>
      </trkpt>
      <trkpt lat="44.00241" lon="0.47344">
        <ele>203</ele>
        <time>2022-08-09T15:16:36Z</time>
      </trkpt>
      <trkpt lat="44.00142" lon="0.47317">
        <ele>201</ele>
        <time>2022-08-09T15:16:54Z</time>
      </trkpt>
      <trkpt lat="44.00125" lon="0.47319">
        <ele>200</ele>
        <time>2022-08-09T15:16:57Z</time>
      </trkpt>
      <trkpt lat="44.00096" lon="0.4734">
        <ele>200</ele>
        <time>2022-08-09T15:17:03Z</time>
      </trkpt>
      <trkpt lat="44.0002" lon="0.47439">
        <ele>199</ele>
        <time>2022-08-09T15:17:22Z</time>
      </trkpt>
      <trkpt lat="43.99907" lon="0.47593">
        <ele>191</ele>
        <time>2022-08-09T15:17:50Z</time>
      </trkpt>
      <trkpt lat="43.99791" lon="0.47734">
        <ele>181</ele>
        <time>2022-08-09T15:18:17Z</time>
      </trkpt>
      <trkpt lat="43.99746" lon="0.47783">
        <ele>181</ele>
        <time>2022-08-09T15:18:27Z</time>
      </trkpt>
      <trkpt lat="43.99714" lon="0.47836">
        <ele>181</ele>
        <time>2022-08-09T15:18:36Z</time>
      </trkpt>
      <trkpt lat="43.99686" lon="0.47868">
        <ele>182</ele>
        <time>2022-08-09T15:18:43Z</time>
      </trkpt>
      <trkpt lat="43.9966" lon="0.47882">
        <ele>182</ele>
        <time>2022-08-09T15:18:48Z</time>
      </trkpt>
      <trkpt lat="43.99612" lon="0.47884">
        <ele>181</ele>
        <time>2022-08-09T15:18:56Z</time>
      </trkpt>
      <trkpt lat="43.99588" lon="0.4789">
        <ele>181</ele>
        <time>2022-08-09T15:19:01Z</time>
      </trkpt>
      <trkpt lat="43.99418" lon="0.48032">
        <ele>186</ele>
        <time>2022-08-09T15:19:36Z</time>
      </trkpt>
      <trkpt lat="43.99396" lon="0.4808">
        <ele>188</ele>
        <time>2022-08-09T15:19:43Z</time>
      </trkpt>
      <trkpt lat="43.99367" lon="0.48178">
        <ele>194</ele>
        <time>2022-08-09T15:19:57Z</time>
      </trkpt>
      <trkpt lat="43.99349" lon="0.48249">
        <ele>196</ele>
        <time>2022-08-09T15:20:06Z</time>
      </trkpt>
      <trkpt lat="43.99256" lon="0.48287">
        <ele>195</ele>
        <time>2022-08-09T15:20:24Z</time>
      </trkpt>
      <trkpt lat="43.99054" lon="0.48421">
        <ele>190</ele>
        <time>2022-08-09T15:21:03Z</time>
      </trkpt>
      <trkpt lat="43.98892" lon="0.48562">
        <ele>183</ele>
        <time>2022-08-09T15:21:37Z</time>
      </trkpt>
      <trkpt lat="43.98834" lon="0.4861">
        <ele>184</ele>
        <time>2022-08-09T15:21:49Z</time>
      </trkpt>
      <trkpt lat="43.98815" lon="0.48617">
        <ele>184</ele>
        <time>2022-08-09T15:21:53Z</time>
      </trkpt>
      <trkpt lat="43.9873" lon="0.48619">
        <ele>183</ele>
        <time>2022-08-09T15:22:08Z</time>
      </trkpt>
      <trkpt lat="43.98719" lon="0.48627">
        <ele>183</ele>
        <time>2022-08-09T15:22:10Z</time>
      </trkpt>
      <trkpt lat="43.9871" lon="0.48645">
        <ele>182</ele>
        <time>2022-08-09T15:22:13Z</time>
      </trkpt>
      <trkpt lat="43.98661" lon="0.48812">
        <ele>178</ele>
        <time>2022-08-09T15:22:36Z</time>
      </trkpt>
      <trkpt lat="43.98627" lon="0.48866">
        <ele>179</ele>
        <time>2022-08-09T15:22:45Z</time>
      </trkpt>
      <trkpt lat="43.98605" lon="0.48917">
        <ele>180</ele>
        <time>2022-08-09T15:22:53Z</time>
      </trkpt>
      <trkpt lat="43.98591" lon="0.48977">
        <ele>180</ele>
        <time>2022-08-09T15:23:01Z</time>
      </trkpt>
      <trkpt lat="43.98572" lon="0.49082">
        <ele>181</ele>
        <time>2022-08-09T15:23:15Z</time>
      </trkpt>
      <trkpt lat="43.98561" lon="0.49126">
        <ele>180</ele>
        <time>2022-08-09T15:23:21Z</time>
      </trkpt>
      <trkpt lat="43.98548" lon="0.49163">
        <ele>180</ele>
        <time>2022-08-09T15:23:26Z</time>
      </trkpt>
      <trkpt lat="43.98506" lon="0.49217">
        <ele>179</ele>
        <time>2022-08-09T15:23:36Z</time>
      </trkpt>
      <trkpt lat="43.98387" lon="0.4939">
        <ele>183</ele>
        <time>2022-08-09T15:24:07Z</time>
      </trkpt>
      <trkpt lat="43.98351" lon="0.49436">
        <ele>186</ele>
        <time>2022-08-09T15:24:16Z</time>
      </trkpt>
      <trkpt lat="43.98326" lon="0.49459">
        <ele>187</ele>
        <time>2022-08-09T15:24:21Z</time>
      </trkpt>
      <trkpt lat="43.98276" lon="0.49528">
        <ele>188</ele>
        <time>2022-08-09T15:24:34Z</time>
      </trkpt>
      <trkpt lat="43.98234" lon="0.49561">
        <ele>187</ele>
        <time>2022-08-09T15:24:42Z</time>
      </trkpt>
      <trkpt lat="43.98226" lon="0.4957">
        <ele>187</ele>
        <time>2022-08-09T15:24:44Z</time>
      </trkpt>
      <trkpt lat="43.98231" lon="0.49601">
        <ele>186</ele>
        <time>2022-08-09T15:24:48Z</time>
      </trkpt>
      <trkpt lat="43.98224" lon="0.49633">
        <ele>187</ele>
        <time>2022-08-09T15:24:52Z</time>
      </trkpt>
      <trkpt lat="43.98221" lon="0.49671">
        <ele>187</ele>
        <time>2022-08-09T15:24:57Z</time>
      </trkpt>
      <trkpt lat="43.98184" lon="0.49814">
        <ele>191</ele>
        <time>2022-08-09T15:25:17Z</time>
      </trkpt>
      <trkpt lat="43.9814" lon="0.49912">
        <ele>190</ele>
        <time>2022-08-09T15:25:31Z</time>
      </trkpt>
      <trkpt lat="43.98126" lon="0.49937">
        <ele>190</ele>
        <time>2022-08-09T15:25:35Z</time>
      </trkpt>
      <trkpt lat="43.98077" lon="0.50014">
        <ele>189</ele>
        <time>2022-08-09T15:25:49Z</time>
      </trkpt>
      <trkpt lat="43.98076" lon="0.50032">
        <ele>189</ele>
        <time>2022-08-09T15:25:51Z</time>
      </trkpt>
      <trkpt lat="43.98078" lon="0.50051">
        <ele>190</ele>
        <time>2022-08-09T15:25:53Z</time>
      </trkpt>
      <trkpt lat="43.98086" lon="0.50095">
        <ele>191</ele>
        <time>2022-08-09T15:25:59Z</time>
      </trkpt>
      <trkpt lat="43.98099" lon="0.50221">
        <ele>194</ele>
        <time>2022-08-09T15:26:16Z</time>
      </trkpt>
      <trkpt lat="43.981" lon="0.50239">
        <ele>194</ele>
        <time>2022-08-09T15:26:18Z</time>
      </trkpt>
      <trkpt lat="43.98096" lon="0.50259">
        <ele>195</ele>
        <time>2022-08-09T15:26:20Z</time>
      </trkpt>
      <trkpt lat="43.98074" lon="0.50316">
        <ele>195</ele>
        <time>2022-08-09T15:26:29Z</time>
      </trkpt>
      <trkpt lat="43.98061" lon="0.50355">
        <ele>196</ele>
        <time>2022-08-09T15:26:34Z</time>
      </trkpt>
      <trkpt lat="43.98059" lon="0.50367">
        <ele>197</ele>
        <time>2022-08-09T15:26:36Z</time>
      </trkpt>
      <trkpt lat="43.98059" lon="0.50383">
        <ele>197</ele>
        <time>2022-08-09T15:26:38Z</time>
      </trkpt>
      <trkpt lat="43.98066" lon="0.50406">
        <ele>198</ele>
        <time>2022-08-09T15:26:41Z</time>
      </trkpt>
      <trkpt lat="43.98075" lon="0.50426">
        <ele>198</ele>
        <time>2022-08-09T15:26:44Z</time>
      </trkpt>
      <trkpt lat="43.98185" lon="0.50576">
        <ele>192</ele>
        <time>2022-08-09T15:27:12Z</time>
      </trkpt>
      <trkpt lat="43.98351" lon="0.50949">
        <ele>187</ele>
        <time>2022-08-09T15:28:08Z</time>
      </trkpt>
      <trkpt lat="43.98541" lon="0.51291">
        <ele>194</ele>
        <time>2022-08-09T15:29:03Z</time>
      </trkpt>
      <trkpt lat="43.98829" lon="0.51635">
        <ele>199</ele>
        <time>2022-08-09T15:30:11Z</time>
      </trkpt>
      <trkpt lat="43.99249" lon="0.52196">
        <ele>189</ele>
        <time>2022-08-09T15:31:54Z</time>
      </trkpt>
      <trkpt lat="43.99372" lon="0.52332">
        <ele>192</ele>
        <time>2022-08-09T15:32:22Z</time>
      </trkpt>
      <trkpt lat="43.99623" lon="0.52594">
        <ele>197</ele>
        <time>2022-08-09T15:33:18Z</time>
      </trkpt>
      <trkpt lat="43.99672" lon="0.52628">
        <ele>196</ele>
        <time>2022-08-09T15:33:28Z</time>
      </trkpt>
      <trkpt lat="43.99762" lon="0.52659">
        <ele>195</ele>
        <time>2022-08-09T15:33:44Z</time>
      </trkpt>
      <trkpt lat="43.99823" lon="0.52672">
        <ele>195</ele>
        <time>2022-08-09T15:33:55Z</time>
      </trkpt>
      <trkpt lat="43.99863" lon="0.52695">
        <ele>193</ele>
        <time>2022-08-09T15:34:03Z</time>
      </trkpt>
      <trkpt lat="43.99929" lon="0.52789">
        <ele>192</ele>
        <time>2022-08-09T15:34:20Z</time>
      </trkpt>
      <trkpt lat="44.00004" lon="0.52889">
        <ele>196</ele>
        <time>2022-08-09T15:34:38Z</time>
      </trkpt>
      <trkpt lat="43.99998" lon="0.52895">
        <ele>196</ele>
        <time>2022-08-09T15:34:40Z</time>
      </trkpt>
      <trkpt lat="44.00004" lon="0.52889">
        <ele>196</ele>
        <time>2022-08-09T15:34:41Z</time>
      </trkpt>
      <trkpt lat="44.0005" lon="0.52948">
        <ele>198</ele>
        <time>2022-08-09T15:34:52Z</time>
      </trkpt>
      <trkpt lat="44.00078" lon="0.52969">
        <ele>200</ele>
        <time>2022-08-09T15:34:58Z</time>
      </trkpt>
      <trkpt lat="44.00091" lon="0.52974">
        <ele>200</ele>
        <time>2022-08-09T15:35:00Z</time>
      </trkpt>
      <trkpt lat="44.00109" lon="0.52977">
        <ele>200</ele>
        <time>2022-08-09T15:35:03Z</time>
      </trkpt>
      <trkpt lat="44.00127" lon="0.52977">
        <ele>200</ele>
        <time>2022-08-09T15:35:07Z</time>
      </trkpt>
      <trkpt lat="44.00234" lon="0.52952">
        <ele>201</ele>
        <time>2022-08-09T15:35:26Z</time>
      </trkpt>
      <trkpt lat="44.0026" lon="0.52951">
        <ele>202</ele>
        <time>2022-08-09T15:35:30Z</time>
      </trkpt>
      <trkpt lat="44.00301" lon="0.52954">
        <ele>202</ele>
        <time>2022-08-09T15:35:38Z</time>
      </trkpt>
      <trkpt lat="44.00431" lon="0.52969">
        <ele>205</ele>
        <time>2022-08-09T15:36:01Z</time>
      </trkpt>
      <trkpt lat="44.00445" lon="0.52975">
        <ele>205</ele>
        <time>2022-08-09T15:36:04Z</time>
      </trkpt>
      <trkpt lat="44.00455" lon="0.52983">
        <ele>205</ele>
        <time>2022-08-09T15:36:06Z</time>
      </trkpt>
      <trkpt lat="44.0047" lon="0.53003">
        <ele>205</ele>
        <time>2022-08-09T15:36:09Z</time>
      </trkpt>
      <trkpt lat="44.00478" lon="0.53018">
        <ele>205</ele>
        <time>2022-08-09T15:36:12Z</time>
      </trkpt>
      <trkpt lat="44.00499" lon="0.53072">
        <ele>205</ele>
        <time>2022-08-09T15:36:20Z</time>
      </trkpt>
      <trkpt lat="44.00524" lon="0.53114">
        <ele>202</ele>
        <time>2022-08-09T15:36:27Z</time>
      </trkpt>
      <trkpt lat="44.00602" lon="0.53199">
        <ele>202</ele>
        <time>2022-08-09T15:36:44Z</time>
      </trkpt>
      <trkpt lat="44.0062" lon="0.53216">
        <ele>201</ele>
        <time>2022-08-09T15:36:48Z</time>
      </trkpt>
      <trkpt lat="44.00638" lon="0.5323">
        <ele>201</ele>
        <time>2022-08-09T15:36:52Z</time>
      </trkpt>
      <trkpt lat="44.00657" lon="0.5324">
        <ele>200</ele>
        <time>2022-08-09T15:36:55Z</time>
      </trkpt>
      <trkpt lat="44.00684" lon="0.53249">
        <ele>200</ele>
        <time>2022-08-09T15:37:00Z</time>
      </trkpt>
      <trkpt lat="44.00728" lon="0.53256">
        <ele>199</ele>
        <time>2022-08-09T15:37:08Z</time>
      </trkpt>
      <trkpt lat="44.00756" lon="0.53256">
        <ele>198</ele>
        <time>2022-08-09T15:37:13Z</time>
      </trkpt>
      <trkpt lat="44.00875" lon="0.53249">
        <ele>201</ele>
        <time>2022-08-09T15:37:34Z</time>
      </trkpt>
      <trkpt lat="44.00897" lon="0.53249">
        <ele>202</ele>
        <time>2022-08-09T15:37:38Z</time>
      </trkpt>
      <trkpt lat="44.00921" lon="0.53253">
        <ele>202</ele>
        <time>2022-08-09T15:37:43Z</time>
      </trkpt>
      <trkpt lat="44.00901" lon="0.53296">
        <ele>203</ele>
        <time>2022-08-09T15:37:49Z</time>
      </trkpt>
      <trkpt lat="44.00869" lon="0.53383">
        <ele>203</ele>
        <time>2022-08-09T15:38:02Z</time>
      </trkpt>
      <trkpt lat="44.00863" lon="0.53393">
        <ele>203</ele>
        <time>2022-08-09T15:38:03Z</time>
      </trkpt>
      <trkpt lat="44.00808" lon="0.5346">
        <ele>202</ele>
        <time>2022-08-09T15:38:16Z</time>
      </trkpt>
      <trkpt lat="44.00798" lon="0.53484">
        <ele>202</ele>
        <time>2022-08-09T15:38:20Z</time>
      </trkpt>
      <trkpt lat="44.00789" lon="0.53501">
        <ele>201</ele>
        <time>2022-08-09T15:38:23Z</time>
      </trkpt>
      <trkpt lat="44.00784" lon="0.53506">
        <ele>201</ele>
        <time>2022-08-09T15:38:24Z</time>
      </trkpt>
      <trkpt lat="44.00777" lon="0.53509">
        <ele>201</ele>
        <time>2022-08-09T15:38:25Z</time>
      </trkpt>
      <trkpt lat="44.00734" lon="0.53522">
        <ele>200</ele>
        <time>2022-08-09T15:38:33Z</time>
      </trkpt>
      <trkpt lat="44.00724" lon="0.53527">
        <ele>201</ele>
        <time>2022-08-09T15:38:35Z</time>
      </trkpt>
      <trkpt lat="44.00627" lon="0.5362">
        <ele>202</ele>
        <time>2022-08-09T15:38:56Z</time>
      </trkpt>
      <trkpt lat="44.00604" lon="0.53658">
        <ele>201</ele>
        <time>2022-08-09T15:39:02Z</time>
      </trkpt>
      <trkpt lat="44.00572" lon="0.53736">
        <ele>200</ele>
        <time>2022-08-09T15:39:13Z</time>
      </trkpt>
      <trkpt lat="44.00565" lon="0.5375">
        <ele>200</ele>
        <time>2022-08-09T15:39:16Z</time>
      </trkpt>
      <trkpt lat="44.00557" lon="0.53762">
        <ele>200</ele>
        <time>2022-08-09T15:39:18Z</time>
      </trkpt>
      <trkpt lat="44.00519" lon="0.53805">
        <ele>201</ele>
        <time>2022-08-09T15:39:26Z</time>
      </trkpt>
      <trkpt lat="44.00509" lon="0.53829">
        <ele>201</ele>
        <time>2022-08-09T15:39:30Z</time>
      </trkpt>
      <trkpt lat="44.00487" lon="0.53918">
        <ele>199</ele>
        <time>2022-08-09T15:39:42Z</time>
      </trkpt>
      <trkpt lat="44.00453" lon="0.54028">
        <ele>199</ele>
        <time>2022-08-09T15:39:57Z</time>
      </trkpt>
      <trkpt lat="44.00448" lon="0.54047">
        <ele>199</ele>
        <time>2022-08-09T15:40:00Z</time>
      </trkpt>
      <trkpt lat="44.0044" lon="0.54094">
        <ele>200</ele>
        <time>2022-08-09T15:40:06Z</time>
      </trkpt>
      <trkpt lat="44.0043" lon="0.54121">
        <ele>200</ele>
        <time>2022-08-09T15:40:10Z</time>
      </trkpt>
      <trkpt lat="44.00384" lon="0.54197">
        <ele>199</ele>
        <time>2022-08-09T15:40:23Z</time>
      </trkpt>
      <trkpt lat="44.00246" lon="0.54379">
        <ele>197</ele>
        <time>2022-08-09T15:40:57Z</time>
      </trkpt>
      <trkpt lat="44.00195" lon="0.54427">
        <ele>195</ele>
        <time>2022-08-09T15:41:08Z</time>
      </trkpt>
      <trkpt lat="44.00123" lon="0.54502">
        <ele>192</ele>
        <time>2022-08-09T15:41:24Z</time>
      </trkpt>
      <trkpt lat="44.00098" lon="0.54534">
        <ele>190</ele>
        <time>2022-08-09T15:41:30Z</time>
      </trkpt>
      <trkpt lat="44.00049" lon="0.54623">
        <ele>188</ele>
        <time>2022-08-09T15:41:44Z</time>
      </trkpt>
      <trkpt lat="44.00038" lon="0.54651">
        <ele>189</ele>
        <time>2022-08-09T15:41:48Z</time>
      </trkpt>
      <trkpt lat="43.99998" lon="0.54783">
        <ele>188</ele>
        <time>2022-08-09T15:42:06Z</time>
      </trkpt>
      <trkpt lat="43.99992" lon="0.54825">
        <ele>189</ele>
        <time>2022-08-09T15:42:12Z</time>
      </trkpt>
      <trkpt lat="43.9999" lon="0.54921">
        <ele>191</ele>
        <time>2022-08-09T15:42:24Z</time>
      </trkpt>
      <trkpt lat="43.99991" lon="0.54934">
        <ele>190</ele>
        <time>2022-08-09T15:42:26Z</time>
      </trkpt>
      <trkpt lat="43.99995" lon="0.54955">
        <ele>190</ele>
        <time>2022-08-09T15:42:29Z</time>
      </trkpt>
      <trkpt lat="44.00001" lon="0.54972">
        <ele>190</ele>
        <time>2022-08-09T15:42:31Z</time>
      </trkpt>
      <trkpt lat="44.0007" lon="0.55128">
        <ele>184</ele>
        <time>2022-08-09T15:42:54Z</time>
      </trkpt>
      <trkpt lat="44.00078" lon="0.55153">
        <ele>185</ele>
        <time>2022-08-09T15:42:58Z</time>
      </trkpt>
      <trkpt lat="44.0015" lon="0.55475">
        <ele>182</ele>
        <time>2022-08-09T15:43:41Z</time>
      </trkpt>
      <trkpt lat="44.00166" lon="0.55523">
        <ele>183</ele>
        <time>2022-08-09T15:43:48Z</time>
      </trkpt>
      <trkpt lat="44.00183" lon="0.55558">
        <ele>183</ele>
        <time>2022-08-09T15:43:53Z</time>
      </trkpt>
      <trkpt lat="44.00197" lon="0.55596">
        <ele>183</ele>
        <time>2022-08-09T15:43:59Z</time>
      </trkpt>
      <trkpt lat="44.00204" lon="0.55636">
        <ele>183</ele>
        <time>2022-08-09T15:44:04Z</time>
      </trkpt>
      <trkpt lat="44.00205" lon="0.55655">
        <ele>183</ele>
        <time>2022-08-09T15:44:06Z</time>
      </trkpt>
      <trkpt lat="44.00202" lon="0.55703">
        <ele>184</ele>
        <time>2022-08-09T15:44:13Z</time>
      </trkpt>
      <trkpt lat="44.00202" lon="0.55727">
        <ele>184</ele>
        <time>2022-08-09T15:44:16Z</time>
      </trkpt>
      <trkpt lat="44.00207" lon="0.5577">
        <ele>183</ele>
        <time>2022-08-09T15:44:21Z</time>
      </trkpt>
      <trkpt lat="44.00213" lon="0.55792">
        <ele>183</ele>
        <time>2022-08-09T15:44:24Z</time>
      </trkpt>
      <trkpt lat="44.00297" lon="0.56038">
        <ele>184</ele>
        <time>2022-08-09T15:44:59Z</time>
      </trkpt>
      <trkpt lat="44.00356" lon="0.56221">
        <ele>186</ele>
        <time>2022-08-09T15:45:25Z</time>
      </trkpt>
      <trkpt lat="44.00374" lon="0.56279">
        <ele>185</ele>
        <time>2022-08-09T15:45:33Z</time>
      </trkpt>
      <trkpt lat="44.00377" lon="0.56298">
        <ele>185</ele>
        <time>2022-08-09T15:45:35Z</time>
      </trkpt>
      <trkpt lat="44.00379" lon="0.56314">
        <ele>184</ele>
        <time>2022-08-09T15:45:37Z</time>
      </trkpt>
      <trkpt lat="44.0038" lon="0.56365">
        <ele>181</ele>
        <time>2022-08-09T15:45:44Z</time>
      </trkpt>
      <trkpt lat="44.00378" lon="0.56391">
        <ele>180</ele>
        <time>2022-08-09T15:45:47Z</time>
      </trkpt>
      <trkpt lat="44.00376" lon="0.56407">
        <ele>179</ele>
        <time>2022-08-09T15:45:49Z</time>
      </trkpt>
      <trkpt lat="44.00361" lon="0.56446">
        <ele>177</ele>
        <time>2022-08-09T15:45:55Z</time>
      </trkpt>
      <trkpt lat="44.00352" lon="0.56485">
        <ele>175</ele>
        <time>2022-08-09T15:46:00Z</time>
      </trkpt>
      <trkpt lat="44.0035" lon="0.56557">
        <ele>171</ele>
        <time>2022-08-09T15:46:10Z</time>
      </trkpt>
      <trkpt lat="44.00351" lon="0.56571">
        <ele>171</ele>
        <time>2022-08-09T15:46:11Z</time>
      </trkpt>
      <trkpt lat="44.00354" lon="0.56577">
        <ele>170</ele>
        <time>2022-08-09T15:46:12Z</time>
      </trkpt>
      <trkpt lat="44.00359" lon="0.56581">
        <ele>170</ele>
        <time>2022-08-09T15:46:13Z</time>
      </trkpt>
      <trkpt lat="44.00369" lon="0.56584">
        <ele>170</ele>
        <time>2022-08-09T15:46:15Z</time>
      </trkpt>
      <trkpt lat="44.00403" lon="0.56589">
        <ele>170</ele>
        <time>2022-08-09T15:46:21Z</time>
      </trkpt>
      <trkpt lat="44.00423" lon="0.56601">
        <ele>168</ele>
        <time>2022-08-09T15:46:25Z</time>
      </trkpt>
      <trkpt lat="44.00431" lon="0.56614">
        <ele>165</ele>
        <time>2022-08-09T15:46:27Z</time>
      </trkpt>
      <trkpt lat="44.0043" lon="0.56627">
        <ele>165</ele>
        <time>2022-08-09T15:46:29Z</time>
      </trkpt>
      <trkpt lat="44.00429" lon="0.56638">
        <ele>164</ele>
        <time>2022-08-09T15:46:30Z</time>
      </trkpt>
      <trkpt lat="44.00419" lon="0.56656">
        <ele>164</ele>
        <time>2022-08-09T15:46:33Z</time>
      </trkpt>
      <trkpt lat="44.00416" lon="0.56665">
        <ele>164</ele>
        <time>2022-08-09T15:46:35Z</time>
      </trkpt>
      <trkpt lat="44.00421" lon="0.56672">
        <ele>163</ele>
        <time>2022-08-09T15:46:36Z</time>
      </trkpt>
      <trkpt lat="44.00439" lon="0.56692">
        <ele>159</ele>
        <time>2022-08-09T15:46:40Z</time>
      </trkpt>
      <trkpt lat="44.00456" lon="0.56719">
        <ele>155</ele>
        <time>2022-08-09T15:46:44Z</time>
      </trkpt>
      <trkpt lat="44.00463" lon="0.56734">
        <ele>153</ele>
        <time>2022-08-09T15:46:47Z</time>
      </trkpt>
      <trkpt lat="44.00489" lon="0.56815">
        <ele>146</ele>
        <time>2022-08-09T15:46:58Z</time>
      </trkpt>
      <trkpt lat="44.00509" lon="0.56885">
        <ele>141</ele>
        <time>2022-08-09T15:47:08Z</time>
      </trkpt>
      <trkpt lat="44.00515" lon="0.56897">
        <ele>140</ele>
        <time>2022-08-09T15:47:10Z</time>
      </trkpt>
      <trkpt lat="44.00561" lon="0.56961">
        <ele>135</ele>
        <time>2022-08-09T15:47:21Z</time>
      </trkpt>
      <trkpt lat="44.00566" lon="0.56974">
        <ele>134</ele>
        <time>2022-08-09T15:47:23Z</time>
      </trkpt>
      <trkpt lat="44.0058" lon="0.57017">
        <ele>132</ele>
        <time>2022-08-09T15:47:29Z</time>
      </trkpt>
      <trkpt lat="44.00586" lon="0.57042">
        <ele>130</ele>
        <time>2022-08-09T15:47:33Z</time>
      </trkpt>
      <trkpt lat="44.00589" lon="0.57058">
        <ele>128</ele>
        <time>2022-08-09T15:47:35Z</time>
      </trkpt>
      <trkpt lat="44.00591" lon="0.57089">
        <ele>126</ele>
        <time>2022-08-09T15:47:39Z</time>
      </trkpt>
      <trkpt lat="44.00608" lon="0.57203">
        <ele>122</ele>
        <time>2022-08-09T15:47:54Z</time>
      </trkpt>
      <trkpt lat="44.00622" lon="0.57324">
        <ele>122</ele>
        <time>2022-08-09T15:48:09Z</time>
      </trkpt>
      <trkpt lat="44.00632" lon="0.57384">
        <ele>122</ele>
        <time>2022-08-09T15:48:17Z</time>
      </trkpt>
      <trkpt lat="44.00696" lon="0.5769">
        <ele>115</ele>
        <time>2022-08-09T15:48:58Z</time>
      </trkpt>
      <trkpt lat="44.00701" lon="0.57735">
        <ele>112</ele>
        <time>2022-08-09T15:49:04Z</time>
      </trkpt>
      <trkpt lat="44.00699" lon="0.57769">
        <ele>111</ele>
        <time>2022-08-09T15:49:08Z</time>
      </trkpt>
      <trkpt lat="44.00686" lon="0.57875">
        <ele>107</ele>
        <time>2022-08-09T15:49:22Z</time>
      </trkpt>
      <trkpt lat="44.00673" lon="0.57936">
        <ele>105</ele>
        <time>2022-08-09T15:49:30Z</time>
      </trkpt>
      <trkpt lat="44.00619" lon="0.58058">
        <ele>99</ele>
        <time>2022-08-09T15:49:48Z</time>
      </trkpt>
      <trkpt lat="44.0061" lon="0.5807">
        <ele>98</ele>
        <time>2022-08-09T15:49:51Z</time>
      </trkpt>
      <trkpt lat="44.00597" lon="0.58096">
        <ele>97</ele>
        <time>2022-08-09T15:49:55Z</time>
      </trkpt>
      <trkpt lat="44.00586" lon="0.58128">
        <ele>95</ele>
        <time>2022-08-09T15:49:59Z</time>
      </trkpt>
      <trkpt lat="44.00576" lon="0.58178">
        <ele>94</ele>
        <time>2022-08-09T15:50:06Z</time>
      </trkpt>
      <trkpt lat="44.00572" lon="0.58217">
        <ele>91</ele>
        <time>2022-08-09T15:50:11Z</time>
      </trkpt>
      <trkpt lat="44.00707" lon="0.58285">
        <ele>89</ele>
        <time>2022-08-09T15:50:36Z</time>
      </trkpt>
      <trkpt lat="44.00789" lon="0.58302">
        <ele>87</ele>
        <time>2022-08-09T15:50:51Z</time>
      </trkpt>
      <trkpt lat="44.00856" lon="0.58298">
        <ele>87</ele>
        <time>2022-08-09T15:51:03Z</time>
      </trkpt>
      <trkpt lat="44.00876" lon="0.58302">
        <ele>88</ele>
        <time>2022-08-09T15:51:07Z</time>
      </trkpt>
      <trkpt lat="44.009" lon="0.58312">
        <ele>88</ele>
        <time>2022-08-09T15:51:11Z</time>
      </trkpt>
      <trkpt lat="44.0106" lon="0.58452">
        <ele>85</ele>
        <time>2022-08-09T15:51:45Z</time>
      </trkpt>
      <trkpt lat="44.01079" lon="0.58462">
        <ele>84</ele>
        <time>2022-08-09T15:51:48Z</time>
      </trkpt>
      <trkpt lat="44.01161" lon="0.58471">
        <ele>76</ele>
        <time>2022-08-09T15:52:03Z</time>
      </trkpt>
      <trkpt lat="44.01179" lon="0.58477">
        <ele>75</ele>
        <time>2022-08-09T15:52:06Z</time>
      </trkpt>
      <trkpt lat="44.01228" lon="0.58507">
        <ele>75</ele>
        <time>2022-08-09T15:52:16Z</time>
      </trkpt>
      <trkpt lat="44.0127" lon="0.58527">
        <ele>77</ele>
        <time>2022-08-09T15:52:24Z</time>
      </trkpt>
      <trkpt lat="44.01295" lon="0.58546">
        <ele>79</ele>
        <time>2022-08-09T15:52:29Z</time>
      </trkpt>
      <trkpt lat="44.01316" lon="0.58565">
        <ele>78</ele>
        <time>2022-08-09T15:52:33Z</time>
      </trkpt>
      <trkpt lat="44.01442" lon="0.58693">
        <ele>77</ele>
        <time>2022-08-09T15:53:01Z</time>
      </trkpt>
      <trkpt lat="44.01454" lon="0.58711">
        <ele>76</ele>
        <time>2022-08-09T15:53:04Z</time>
      </trkpt>
      <trkpt lat="44.01474" lon="0.58746">
        <ele>75</ele>
        <time>2022-08-09T15:53:10Z</time>
      </trkpt>
      <trkpt lat="44.01518" lon="0.58827">
        <ele>73</ele>
        <time>2022-08-09T15:53:23Z</time>
      </trkpt>
      <trkpt lat="44.01554" lon="0.58878">
        <ele>73</ele>
        <time>2022-08-09T15:53:32Z</time>
      </trkpt>
      <trkpt lat="44.01635" lon="0.58982">
        <ele>70</ele>
        <time>2022-08-09T15:53:52Z</time>
      </trkpt>
      <trkpt lat="44.01804" lon="0.59268">
        <ele>69</ele>
        <time>2022-08-09T15:54:39Z</time>
      </trkpt>
      <trkpt lat="44.01845" lon="0.59325">
        <ele>68</ele>
        <time>2022-08-09T15:54:49Z</time>
      </trkpt>
      <trkpt lat="44.0193" lon="0.59424">
        <ele>68</ele>
        <time>2022-08-09T15:55:09Z</time>
      </trkpt>
      <trkpt lat="44.01939" lon="0.59438">
        <ele>68</ele>
        <time>2022-08-09T15:55:11Z</time>
      </trkpt>
      <trkpt lat="44.0209" lon="0.59776">
        <ele>68</ele>
        <time>2022-08-09T15:56:02Z</time>
      </trkpt>
      <trkpt lat="44.02099" lon="0.59804">
        <ele>67</ele>
        <time>2022-08-09T15:56:06Z</time>
      </trkpt>
      <trkpt lat="44.02122" lon="0.59901">
        <ele>67</ele>
        <time>2022-08-09T15:56:19Z</time>
      </trkpt>
      <trkpt lat="44.02131" lon="0.59929">
        <ele>67</ele>
        <time>2022-08-09T15:56:23Z</time>
      </trkpt>
      <trkpt lat="44.022" lon="0.60101">
        <ele>66</ele>
        <time>2022-08-09T15:56:48Z</time>
      </trkpt>
      <trkpt lat="44.02368" lon="0.6043">
        <ele>65</ele>
        <time>2022-08-09T15:57:40Z</time>
      </trkpt>
      <trkpt lat="44.02388" lon="0.60458">
        <ele>65</ele>
        <time>2022-08-09T15:57:45Z</time>
      </trkpt>
      <trkpt lat="44.02488" lon="0.60561">
        <ele>64</ele>
        <time>2022-08-09T15:58:07Z</time>
      </trkpt>
      <trkpt lat="44.02502" lon="0.6057">
        <ele>64</ele>
        <time>2022-08-09T15:58:10Z</time>
      </trkpt>
      <trkpt lat="44.02519" lon="0.60575">
        <ele>65</ele>
        <time>2022-08-09T15:58:13Z</time>
      </trkpt>
      <trkpt lat="44.0259" lon="0.60583">
        <ele>66</ele>
        <time>2022-08-09T15:58:26Z</time>
      </trkpt>
      <trkpt lat="44.02602" lon="0.60585">
        <ele>67</ele>
        <time>2022-08-09T15:58:28Z</time>
      </trkpt>
      <trkpt lat="44.02612" lon="0.60591">
        <ele>67</ele>
        <time>2022-08-09T15:58:30Z</time>
      </trkpt>
      <trkpt lat="44.02632" lon="0.60608">
        <ele>67</ele>
        <time>2022-08-09T15:58:34Z</time>
      </trkpt>
      <trkpt lat="44.02646" lon="0.60617">
        <ele>67</ele>
        <time>2022-08-09T15:58:37Z</time>
      </trkpt>
      <trkpt lat="44.02698" lon="0.60642">
        <ele>67</ele>
        <time>2022-08-09T15:58:47Z</time>
      </trkpt>
      <trkpt lat="44.02705" lon="0.60649">
        <ele>67</ele>
        <time>2022-08-09T15:58:48Z</time>
      </trkpt>
      <trkpt lat="44.02706" lon="0.60659">
        <ele>66</ele>
        <time>2022-08-09T15:58:49Z</time>
      </trkpt>
      <trkpt lat="44.02695" lon="0.60807">
        <ele>63</ele>
        <time>2022-08-09T15:59:08Z</time>
      </trkpt>
      <trkpt lat="44.02698" lon="0.60821">
        <ele>63</ele>
        <time>2022-08-09T15:59:10Z</time>
      </trkpt>
      <trkpt lat="44.02704" lon="0.60834">
        <ele>63</ele>
        <time>2022-08-09T15:59:12Z</time>
      </trkpt>
      <trkpt lat="44.02728" lon="0.60856">
        <ele>64</ele>
        <time>2022-08-09T15:59:17Z</time>
      </trkpt>
      <trkpt lat="44.02732" lon="0.60864">
        <ele>64</ele>
        <time>2022-08-09T15:59:19Z</time>
      </trkpt>
      <trkpt lat="44.02732" lon="0.60872">
        <ele>64</ele>
        <time>2022-08-09T15:59:20Z</time>
      </trkpt>
      <trkpt lat="44.02717" lon="0.60923">
        <ele>67</ele>
        <time>2022-08-09T15:59:27Z</time>
      </trkpt>
      <trkpt lat="44.02707" lon="0.60966">
        <ele>72</ele>
        <time>2022-08-09T15:59:32Z</time>
      </trkpt>
      <trkpt lat="44.02706" lon="0.60982">
        <ele>73</ele>
        <time>2022-08-09T15:59:35Z</time>
      </trkpt>
      <trkpt lat="44.02712" lon="0.60997">
        <ele>74</ele>
        <time>2022-08-09T15:59:37Z</time>
      </trkpt>
      <trkpt lat="44.02729" lon="0.61009">
        <ele>75</ele>
        <time>2022-08-09T15:59:40Z</time>
      </trkpt>
      <trkpt lat="44.02816" lon="0.61053">
        <ele>73</ele>
        <time>2022-08-09T15:59:57Z</time>
      </trkpt>
      <trkpt lat="44.02821" lon="0.6106">
        <ele>74</ele>
        <time>2022-08-09T15:59:58Z</time>
      </trkpt>
      <trkpt lat="44.02822" lon="0.61069">
        <ele>74</ele>
        <time>2022-08-09T15:59:59Z</time>
      </trkpt>
      <trkpt lat="44.0282" lon="0.61074">
        <ele>75</ele>
        <time>2022-08-09T16:00:00Z</time>
      </trkpt>
      <trkpt lat="44.02806" lon="0.61103">
        <ele>78</ele>
        <time>2022-08-09T16:00:04Z</time>
      </trkpt>
      <trkpt lat="44.02793" lon="0.61145">
        <ele>80</ele>
        <time>2022-08-09T16:00:10Z</time>
      </trkpt>
      <trkpt lat="44.02788" lon="0.61173">
        <ele>81</ele>
        <time>2022-08-09T16:00:14Z</time>
      </trkpt>
      <trkpt lat="44.02787" lon="0.61209">
        <ele>81</ele>
        <time>2022-08-09T16:00:18Z</time>
      </trkpt>
      <trkpt lat="44.02793" lon="0.61322">
        <ele>81</ele>
        <time>2022-08-09T16:00:33Z</time>
      </trkpt>
      <trkpt lat="44.02798" lon="0.61341">
        <ele>81</ele>
        <time>2022-08-09T16:00:35Z</time>
      </trkpt>
      <trkpt lat="44.02806" lon="0.61357">
        <ele>81</ele>
        <time>2022-08-09T16:00:38Z</time>
      </trkpt>
      <trkpt lat="44.02816" lon="0.61369">
        <ele>80</ele>
        <time>2022-08-09T16:00:40Z</time>
      </trkpt>
      <trkpt lat="44.02881" lon="0.61428">
        <ele>78</ele>
        <time>2022-08-09T16:00:54Z</time>
      </trkpt>
      <trkpt lat="44.02914" lon="0.61466">
        <ele>77</ele>
        <time>2022-08-09T16:01:02Z</time>
      </trkpt>
      <trkpt lat="44.02954" lon="0.61521">
        <ele>76</ele>
        <time>2022-08-09T16:01:12Z</time>
      </trkpt>
      <trkpt lat="44.02973" lon="0.61538">
        <ele>75</ele>
        <time>2022-08-09T16:01:16Z</time>
      </trkpt>
      <trkpt lat="44.0311" lon="0.61653">
        <ele>71</ele>
        <time>2022-08-09T16:01:44Z</time>
      </trkpt>
      <trkpt lat="44.03155" lon="0.61685">
        <ele>71</ele>
        <time>2022-08-09T16:01:53Z</time>
      </trkpt>
      <trkpt lat="44.03169" lon="0.61699">
        <ele>71</ele>
        <time>2022-08-09T16:01:56Z</time>
      </trkpt>
      <trkpt lat="44.03178" lon="0.61721">
        <ele>70</ele>
        <time>2022-08-09T16:02:00Z</time>
      </trkpt>
      <trkpt lat="44.03284" lon="0.62033">
        <ele>72</ele>
        <time>2022-08-09T16:02:44Z</time>
      </trkpt>
      <trkpt lat="44.03351" lon="0.62164">
        <ele>70</ele>
        <time>2022-08-09T16:03:04Z</time>
      </trkpt>
      <trkpt lat="44.03396" lon="0.62237">
        <ele>70</ele>
        <time>2022-08-09T16:03:17Z</time>
      </trkpt>
      <trkpt lat="44.03416" lon="0.62276">
        <ele>71</ele>
        <time>2022-08-09T16:03:23Z</time>
      </trkpt>
      <trkpt lat="44.03429" lon="0.62292">
        <ele>71</ele>
        <time>2022-08-09T16:03:26Z</time>
      </trkpt>
      <trkpt lat="44.0347" lon="0.62325">
        <ele>72</ele>
        <time>2022-08-09T16:03:34Z</time>
      </trkpt>
      <trkpt lat="44.03527" lon="0.62381">
        <ele>71</ele>
        <time>2022-08-09T16:03:47Z</time>
      </trkpt>
      <trkpt lat="44.03677" lon="0.62514">
        <ele>69</ele>
        <time>2022-08-09T16:04:18Z</time>
      </trkpt>
      <trkpt lat="44.03737" lon="0.62581">
        <ele>68</ele>
        <time>2022-08-09T16:04:32Z</time>
      </trkpt>
      <trkpt lat="44.03751" lon="0.62595">
        <ele>68</ele>
        <time>2022-08-09T16:04:35Z</time>
      </trkpt>
      <trkpt lat="44.03836" lon="0.62659">
        <ele>70</ele>
        <time>2022-08-09T16:04:52Z</time>
      </trkpt>
      <trkpt lat="44.03955" lon="0.62772">
        <ele>79</ele>
        <time>2022-08-09T16:05:18Z</time>
      </trkpt>
      <trkpt lat="44.04278" lon="0.63062">
        <ele>72</ele>
        <time>2022-08-09T16:06:26Z</time>
      </trkpt>
      <trkpt lat="44.04337" lon="0.6312">
        <ele>73</ele>
        <time>2022-08-09T16:06:39Z</time>
      </trkpt>
      <trkpt lat="44.04365" lon="0.63152">
        <ele>72</ele>
        <time>2022-08-09T16:06:46Z</time>
      </trkpt>
      <trkpt lat="44.04424" lon="0.63226">
        <ele>69</ele>
        <time>2022-08-09T16:07:00Z</time>
      </trkpt>
      <trkpt lat="44.0446" lon="0.63284">
        <ele>68</ele>
        <time>2022-08-09T16:07:09Z</time>
      </trkpt>
      <trkpt lat="44.04489" lon="0.63339">
        <ele>67</ele>
        <time>2022-08-09T16:07:18Z</time>
      </trkpt>
      <trkpt lat="44.04496" lon="0.63366">
        <ele>67</ele>
        <time>2022-08-09T16:07:22Z</time>
      </trkpt>
      <trkpt lat="44.04513" lon="0.63457">
        <ele>69</ele>
        <time>2022-08-09T16:07:34Z</time>
      </trkpt>
      <trkpt lat="44.04522" lon="0.63482">
        <ele>70</ele>
        <time>2022-08-09T16:07:37Z</time>
      </trkpt>
      <trkpt lat="44.04534" lon="0.63505">
        <ele>69</ele>
        <time>2022-08-09T16:07:41Z</time>
      </trkpt>
      <trkpt lat="44.0458" lon="0.6357">
        <ele>64</ele>
        <time>2022-08-09T16:07:53Z</time>
      </trkpt>
      <trkpt lat="44.04591" lon="0.6359">
        <ele>65</ele>
        <time>2022-08-09T16:07:56Z</time>
      </trkpt>
      <trkpt lat="44.04645" lon="0.637">
        <ele>67</ele>
        <time>2022-08-09T16:08:13Z</time>
      </trkpt>
      <trkpt lat="44.04661" lon="0.63736">
        <ele>66</ele>
        <time>2022-08-09T16:08:18Z</time>
      </trkpt>
      <trkpt lat="44.04694" lon="0.63831">
        <ele>65</ele>
        <time>2022-08-09T16:08:32Z</time>
      </trkpt>
      <trkpt lat="44.04785" lon="0.64018">
        <ele>67</ele>
        <time>2022-08-09T16:09:01Z</time>
      </trkpt>
      <trkpt lat="44.048" lon="0.6404">
        <ele>70</ele>
        <time>2022-08-09T16:09:05Z</time>
      </trkpt>
      <trkpt lat="44.0481" lon="0.64048">
        <ele>71</ele>
        <time>2022-08-09T16:09:07Z</time>
      </trkpt>
      <trkpt lat="44.04839" lon="0.64058">
        <ele>72</ele>
        <time>2022-08-09T16:09:12Z</time>
      </trkpt>
      <trkpt lat="44.04929" lon="0.64133">
        <ele>75</ele>
        <time>2022-08-09T16:09:31Z</time>
      </trkpt>
      <trkpt lat="44.04983" lon="0.64172">
        <ele>76</ele>
        <time>2022-08-09T16:09:42Z</time>
      </trkpt>
      <trkpt lat="44.05021" lon="0.64216">
        <ele>76</ele>
        <time>2022-08-09T16:09:50Z</time>
      </trkpt>
      <trkpt lat="44.05047" lon="0.6426">
        <ele>78</ele>
        <time>2022-08-09T16:09:58Z</time>
      </trkpt>
      <trkpt lat="44.05059" lon="0.643">
        <ele>79</ele>
        <time>2022-08-09T16:10:03Z</time>
      </trkpt>
      <trkpt lat="44.05063" lon="0.64323">
        <ele>80</ele>
        <time>2022-08-09T16:10:06Z</time>
      </trkpt>
      <trkpt lat="44.05069" lon="0.64333">
        <ele>80</ele>
        <time>2022-08-09T16:10:08Z</time>
      </trkpt>
      <trkpt lat="44.05079" lon="0.6434">
        <ele>80</ele>
        <time>2022-08-09T16:10:10Z</time>
      </trkpt>
      <trkpt lat="44.05151" lon="0.64369">
        <ele>79</ele>
        <time>2022-08-09T16:10:23Z</time>
      </trkpt>
      <trkpt lat="44.05253" lon="0.64426">
        <ele>80</ele>
        <time>2022-08-09T16:10:43Z</time>
      </trkpt>
      <trkpt lat="44.05347" lon="0.64486">
        <ele>78</ele>
        <time>2022-08-09T16:11:01Z</time>
      </trkpt>
      <trkpt lat="44.05395" lon="0.64524">
        <ele>79</ele>
        <time>2022-08-09T16:11:11Z</time>
      </trkpt>
      <trkpt lat="44.05434" lon="0.64559">
        <ele>80</ele>
        <time>2022-08-09T16:11:19Z</time>
      </trkpt>
      <trkpt lat="44.05474" lon="0.64616">
        <ele>80</ele>
        <time>2022-08-09T16:11:29Z</time>
      </trkpt>
      <trkpt lat="44.05507" lon="0.64713">
        <ele>78</ele>
        <time>2022-08-09T16:11:43Z</time>
      </trkpt>
      <trkpt lat="44.05516" lon="0.64729">
        <ele>78</ele>
        <time>2022-08-09T16:11:46Z</time>
      </trkpt>
      <trkpt lat="44.05531" lon="0.64749">
        <ele>77</ele>
        <time>2022-08-09T16:11:49Z</time>
      </trkpt>
      <trkpt lat="44.05579" lon="0.64796">
        <ele>76</ele>
        <time>2022-08-09T16:12:00Z</time>
      </trkpt>
      <trkpt lat="44.05589" lon="0.64816">
        <ele>77</ele>
        <time>2022-08-09T16:12:03Z</time>
      </trkpt>
      <trkpt lat="44.05604" lon="0.64858">
        <ele>79</ele>
        <time>2022-08-09T16:12:09Z</time>
      </trkpt>
      <trkpt lat="44.05619" lon="0.64886">
        <ele>80</ele>
        <time>2022-08-09T16:12:13Z</time>
      </trkpt>
      <trkpt lat="44.05644" lon="0.64921">
        <ele>82</ele>
        <time>2022-08-09T16:12:20Z</time>
      </trkpt>
      <trkpt lat="44.05705" lon="0.64986">
        <ele>84</ele>
        <time>2022-08-09T16:12:33Z</time>
      </trkpt>
      <trkpt lat="44.05738" lon="0.65018">
        <ele>84</ele>
        <time>2022-08-09T16:12:41Z</time>
      </trkpt>
      <trkpt lat="44.05844" lon="0.65098">
        <ele>86</ele>
        <time>2022-08-09T16:13:02Z</time>
      </trkpt>
      <trkpt lat="44.05846" lon="0.65104">
        <ele>86</ele>
        <time>2022-08-09T16:13:03Z</time>
      </trkpt>
      <trkpt lat="44.05847" lon="0.6511">
        <ele>86</ele>
        <time>2022-08-09T16:13:04Z</time>
      </trkpt>
      <trkpt lat="44.06222" lon="0.65077">
        <ele>89</ele>
        <time>2022-08-09T16:14:11Z</time>
      </trkpt>
      <trkpt lat="44.06287" lon="0.6507">
        <ele>87</ele>
        <time>2022-08-09T16:14:22Z</time>
      </trkpt>
      <trkpt lat="44.06294" lon="0.65087">
        <ele>87</ele>
        <time>2022-08-09T16:14:25Z</time>
      </trkpt>
      <trkpt lat="44.06359" lon="0.65142">
        <ele>85</ele>
        <time>2022-08-09T16:14:38Z</time>
      </trkpt>
      <trkpt lat="44.06387" lon="0.65164">
        <ele>83</ele>
        <time>2022-08-09T16:14:44Z</time>
      </trkpt>
      <trkpt lat="44.0645" lon="0.65178">
        <ele>81</ele>
        <time>2022-08-09T16:14:55Z</time>
      </trkpt>
      <trkpt lat="44.06481" lon="0.65188">
        <ele>80</ele>
        <time>2022-08-09T16:15:01Z</time>
      </trkpt>
      <trkpt lat="44.06502" lon="0.65198">
        <ele>78</ele>
        <time>2022-08-09T16:15:05Z</time>
      </trkpt>
      <trkpt lat="44.06528" lon="0.65217">
        <ele>76</ele>
        <time>2022-08-09T16:15:10Z</time>
      </trkpt>
      <trkpt lat="44.06554" lon="0.6524">
        <ele>74</ele>
        <time>2022-08-09T16:15:16Z</time>
      </trkpt>
      <trkpt lat="44.06587" lon="0.6528">
        <ele>71</ele>
        <time>2022-08-09T16:15:23Z</time>
      </trkpt>
      <trkpt lat="44.06596" lon="0.65302">
        <ele>70</ele>
        <time>2022-08-09T16:15:27Z</time>
      </trkpt>
      <trkpt lat="44.06642" lon="0.65398">
        <ele>72</ele>
        <time>2022-08-09T16:15:41Z</time>
      </trkpt>
      <trkpt lat="44.06665" lon="0.6545">
        <ele>74</ele>
        <time>2022-08-09T16:15:49Z</time>
      </trkpt>
      <trkpt lat="44.06676" lon="0.65496">
        <ele>76</ele>
        <time>2022-08-09T16:15:55Z</time>
      </trkpt>
      <trkpt lat="44.06693" lon="0.65632">
        <ele>79</ele>
        <time>2022-08-09T16:16:13Z</time>
      </trkpt>
      <trkpt lat="44.06701" lon="0.65664">
        <ele>80</ele>
        <time>2022-08-09T16:16:17Z</time>
      </trkpt>
      <trkpt lat="44.06765" lon="0.65801">
        <ele>83</ele>
        <time>2022-08-09T16:16:38Z</time>
      </trkpt>
      <trkpt lat="44.06784" lon="0.65863">
        <ele>84</ele>
        <time>2022-08-09T16:16:47Z</time>
      </trkpt>
      <trkpt lat="44.06809" lon="0.65912">
        <ele>85</ele>
        <time>2022-08-09T16:16:55Z</time>
      </trkpt>
      <trkpt lat="44.0683" lon="0.65958">
        <ele>86</ele>
        <time>2022-08-09T16:17:01Z</time>
      </trkpt>
      <trkpt lat="44.06835" lon="0.65997">
        <ele>88</ele>
        <time>2022-08-09T16:17:07Z</time>
      </trkpt>
      <trkpt lat="44.06836" lon="0.66051">
        <ele>87</ele>
        <time>2022-08-09T16:17:13Z</time>
      </trkpt>
      <trkpt lat="44.06828" lon="0.66094">
        <ele>87</ele>
        <time>2022-08-09T16:17:19Z</time>
      </trkpt>
      <trkpt lat="44.06782" lon="0.66184">
        <ele>90</ele>
        <time>2022-08-09T16:17:33Z</time>
      </trkpt>
      <trkpt lat="44.06769" lon="0.66216">
        <ele>92</ele>
        <time>2022-08-09T16:17:38Z</time>
      </trkpt>
      <trkpt lat="44.06767" lon="0.66228">
        <ele>92</ele>
        <time>2022-08-09T16:17:40Z</time>
      </trkpt>
      <trkpt lat="44.06769" lon="0.66315">
        <ele>91</ele>
        <time>2022-08-09T16:17:51Z</time>
      </trkpt>
      <trkpt lat="44.06666" lon="0.66746">
        <ele>98</ele>
        <time>2022-08-09T16:18:49Z</time>
      </trkpt>
      <trkpt lat="44.06658" lon="0.6692">
        <ele>106</ele>
        <time>2022-08-09T16:19:11Z</time>
      </trkpt>
      <trkpt lat="44.0662" lon="0.67952">
        <ele>127</ele>
        <time>2022-08-09T16:21:23Z</time>
      </trkpt>
      <trkpt lat="44.06626" lon="0.67998">
        <ele>126</ele>
        <time>2022-08-09T16:21:29Z</time>
      </trkpt>
      <trkpt lat="44.06635" lon="0.68023">
        <ele>125</ele>
        <time>2022-08-09T16:21:33Z</time>
      </trkpt>
      <trkpt lat="44.0664" lon="0.68037">
        <ele>125</ele>
        <time>2022-08-09T16:21:35Z</time>
      </trkpt>
      <trkpt lat="44.07081" lon="0.68479">
        <ele>118</ele>
        <time>2022-08-09T16:23:11Z</time>
      </trkpt>
      <trkpt lat="44.07223" lon="0.68624">
        <ele>114</ele>
        <time>2022-08-09T16:23:43Z</time>
      </trkpt>
      <trkpt lat="44.07371" lon="0.68768">
        <ele>115</ele>
        <time>2022-08-09T16:24:15Z</time>
      </trkpt>
      <trkpt lat="44.07788" lon="0.69188">
        <ele>102</ele>
        <time>2022-08-09T16:25:46Z</time>
      </trkpt>
      <trkpt lat="44.07932" lon="0.69328">
        <ele>95</ele>
        <time>2022-08-09T16:26:18Z</time>
      </trkpt>
      <trkpt lat="44.07938" lon="0.69336">
        <ele>95</ele>
        <time>2022-08-09T16:26:19Z</time>
      </trkpt>
      <trkpt lat="44.07943" lon="0.69344">
        <ele>96</ele>
        <time>2022-08-09T16:26:21Z</time>
      </trkpt>
      <trkpt lat="44.07955" lon="0.69361">
        <ele>97</ele>
        <time>2022-08-09T16:26:24Z</time>
      </trkpt>
      <trkpt lat="44.0797" lon="0.69379">
        <ele>98</ele>
        <time>2022-08-09T16:26:27Z</time>
      </trkpt>
      <trkpt lat="44.07982" lon="0.69413">
        <ele>100</ele>
        <time>2022-08-09T16:26:32Z</time>
      </trkpt>
      <trkpt lat="44.0799" lon="0.69474">
        <ele>103</ele>
        <time>2022-08-09T16:26:40Z</time>
      </trkpt>
      <trkpt lat="44.07992" lon="0.69587">
        <ele>106</ele>
        <time>2022-08-09T16:26:54Z</time>
      </trkpt>
      <trkpt lat="44.07996" lon="0.69666">
        <ele>107</ele>
        <time>2022-08-09T16:27:04Z</time>
      </trkpt>
      <trkpt lat="44.08008" lon="0.69688">
        <ele>108</ele>
        <time>2022-08-09T16:27:08Z</time>
      </trkpt>
      <trkpt lat="44.08017" lon="0.69696">
        <ele>110</ele>
        <time>2022-08-09T16:27:10Z</time>
      </trkpt>
      <trkpt lat="44.08028" lon="0.69701">
        <ele>111</ele>
        <time>2022-08-09T16:27:12Z</time>
      </trkpt>
      <trkpt lat="44.08051" lon="0.69693">
        <ele>113</ele>
        <time>2022-08-09T16:27:16Z</time>
      </trkpt>
      <trkpt lat="44.08061" lon="0.69677">
        <ele>113</ele>
        <time>2022-08-09T16:27:19Z</time>
      </trkpt>
      <trkpt lat="44.08065" lon="0.69651">
        <ele>112</ele>
        <time>2022-08-09T16:27:22Z</time>
      </trkpt>
      <trkpt lat="44.08071" lon="0.69622">
        <ele>111</ele>
        <time>2022-08-09T16:27:26Z</time>
      </trkpt>
      <trkpt lat="44.08078" lon="0.69604">
        <ele>111</ele>
        <time>2022-08-09T16:27:29Z</time>
      </trkpt>
      <trkpt lat="44.0809" lon="0.69587">
        <ele>111</ele>
        <time>2022-08-09T16:27:32Z</time>
      </trkpt>
      <trkpt lat="44.0815" lon="0.69559">
        <ele>116</ele>
        <time>2022-08-09T16:27:43Z</time>
      </trkpt>
      <trkpt lat="44.08281" lon="0.69502">
        <ele>120</ele>
        <time>2022-08-09T16:28:07Z</time>
      </trkpt>
      <trkpt lat="44.08307" lon="0.69497">
        <ele>121</ele>
        <time>2022-08-09T16:28:12Z</time>
      </trkpt>
      <trkpt lat="44.08323" lon="0.69507">
        <ele>123</ele>
        <time>2022-08-09T16:28:15Z</time>
      </trkpt>
      <trkpt lat="44.08334" lon="0.69526">
        <ele>125</ele>
        <time>2022-08-09T16:28:18Z</time>
      </trkpt>
      <trkpt lat="44.08338" lon="0.69537">
        <ele>126</ele>
        <time>2022-08-09T16:28:20Z</time>
      </trkpt>
      <trkpt lat="44.08372" lon="0.69616">
        <ele>132</ele>
        <time>2022-08-09T16:28:32Z</time>
      </trkpt>
      <trkpt lat="44.08387" lon="0.69627">
        <ele>132</ele>
        <time>2022-08-09T16:28:35Z</time>
      </trkpt>
      <trkpt lat="44.084" lon="0.69632">
        <ele>132</ele>
        <time>2022-08-09T16:28:37Z</time>
      </trkpt>
      <trkpt lat="44.0844" lon="0.69623">
        <ele>129</ele>
        <time>2022-08-09T16:28:44Z</time>
      </trkpt>
      <trkpt lat="44.08458" lon="0.69629">
        <ele>129</ele>
        <time>2022-08-09T16:28:48Z</time>
      </trkpt>
      <trkpt lat="44.08469" lon="0.69649">
        <ele>130</ele>
        <time>2022-08-09T16:28:51Z</time>
      </trkpt>
      <trkpt lat="44.08471" lon="0.69699">
        <ele>133</ele>
        <time>2022-08-09T16:28:57Z</time>
      </trkpt>
      <trkpt lat="44.08464" lon="0.69936">
        <ele>149</ele>
        <time>2022-08-09T16:29:28Z</time>
      </trkpt>
      <trkpt lat="44.08457" lon="0.70007">
        <ele>153</ele>
        <time>2022-08-09T16:29:37Z</time>
      </trkpt>
      <trkpt lat="44.08449" lon="0.70053">
        <ele>151</ele>
        <time>2022-08-09T16:29:43Z</time>
      </trkpt>
      <trkpt lat="44.08447" lon="0.7008">
        <ele>149</ele>
        <time>2022-08-09T16:29:46Z</time>
      </trkpt>
      <trkpt lat="44.08507" lon="0.70312">
        <ele>137</ele>
        <time>2022-08-09T16:30:18Z</time>
      </trkpt>
      <trkpt lat="44.0856" lon="0.70499">
        <ele>127</ele>
        <time>2022-08-09T16:30:43Z</time>
      </trkpt>
      <trkpt lat="44.08589" lon="0.7059">
        <ele>125</ele>
        <time>2022-08-09T16:30:56Z</time>
      </trkpt>
      <trkpt lat="44.0861" lon="0.70645">
        <ele>123</ele>
        <time>2022-08-09T16:31:04Z</time>
      </trkpt>
      <trkpt lat="44.08646" lon="0.7073">
        <ele>120</ele>
        <time>2022-08-09T16:31:17Z</time>
      </trkpt>
      <trkpt lat="44.08672" lon="0.70806">
        <ele>118</ele>
        <time>2022-08-09T16:31:27Z</time>
      </trkpt>
      <trkpt lat="44.08859" lon="0.71436">
        <ele>111</ele>
        <time>2022-08-09T16:32:55Z</time>
      </trkpt>
      <trkpt lat="44.08878" lon="0.71517">
        <ele>112</ele>
        <time>2022-08-09T16:33:05Z</time>
      </trkpt>
      <trkpt lat="44.08916" lon="0.71727">
        <ele>119</ele>
        <time>2022-08-09T16:33:33Z</time>
      </trkpt>
      <trkpt lat="44.08992" lon="0.72174">
        <ele>115</ele>
        <time>2022-08-09T16:34:32Z</time>
      </trkpt>
      <trkpt lat="44.09001" lon="0.72219">
        <ele>114</ele>
        <time>2022-08-09T16:34:38Z</time>
      </trkpt>
      <trkpt lat="44.09019" lon="0.72253">
        <ele>114</ele>
        <time>2022-08-09T16:34:43Z</time>
      </trkpt>
      <trkpt lat="44.09045" lon="0.72269">
        <ele>115</ele>
        <time>2022-08-09T16:34:48Z</time>
      </trkpt>
      <trkpt lat="44.09512" lon="0.72394">
        <ele>119</ele>
        <time>2022-08-09T16:36:13Z</time>
      </trkpt>
      <trkpt lat="44.0971" lon="0.72453">
        <ele>115</ele>
        <time>2022-08-09T16:36:49Z</time>
      </trkpt>
      <trkpt lat="44.09793" lon="0.72492">
        <ele>115</ele>
        <time>2022-08-09T16:37:05Z</time>
      </trkpt>
      <trkpt lat="44.09881" lon="0.7254">
        <ele>114</ele>
        <time>2022-08-09T16:37:21Z</time>
      </trkpt>
      <trkpt lat="44.09934" lon="0.72566">
        <ele>114</ele>
        <time>2022-08-09T16:37:31Z</time>
      </trkpt>
      <trkpt lat="44.0999" lon="0.72576">
        <ele>115</ele>
        <time>2022-08-09T16:37:41Z</time>
      </trkpt>
      <trkpt lat="44.10081" lon="0.72587">
        <ele>116</ele>
        <time>2022-08-09T16:37:58Z</time>
      </trkpt>
      <trkpt lat="44.1015" lon="0.72606">
        <ele>118</ele>
        <time>2022-08-09T16:38:10Z</time>
      </trkpt>
      <trkpt lat="44.10315" lon="0.7268">
        <ele>117</ele>
        <time>2022-08-09T16:38:41Z</time>
      </trkpt>
      <trkpt lat="44.105" lon="0.72803">
        <ele>116</ele>
        <time>2022-08-09T16:39:17Z</time>
      </trkpt>
      <trkpt lat="44.10598" lon="0.72896">
        <ele>115</ele>
        <time>2022-08-09T16:39:39Z</time>
      </trkpt>
      <trkpt lat="44.10729" lon="0.73049">
        <ele>101</ele>
        <time>2022-08-09T16:40:09Z</time>
      </trkpt>
      <trkpt lat="44.10812" lon="0.73141">
        <ele>92</ele>
        <time>2022-08-09T16:40:28Z</time>
      </trkpt>
      <trkpt lat="44.10893" lon="0.73213">
        <ele>88</ele>
        <time>2022-08-09T16:40:45Z</time>
      </trkpt>
      <trkpt lat="44.11054" lon="0.73367">
        <ele>80</ele>
        <time>2022-08-09T16:41:20Z</time>
      </trkpt>
      <trkpt lat="44.11076" lon="0.73386">
        <ele>79</ele>
        <time>2022-08-09T16:41:24Z</time>
      </trkpt>
      <trkpt lat="44.11141" lon="0.73447">
        <ele>77</ele>
        <time>2022-08-09T16:41:38Z</time>
      </trkpt>
      <trkpt lat="44.11271" lon="0.73589">
        <ele>74</ele>
        <time>2022-08-09T16:42:08Z</time>
      </trkpt>
      <trkpt lat="44.113" lon="0.73611">
        <ele>73</ele>
        <time>2022-08-09T16:42:14Z</time>
      </trkpt>
      <trkpt lat="44.11331" lon="0.73626">
        <ele>73</ele>
        <time>2022-08-09T16:42:19Z</time>
      </trkpt>
      <trkpt lat="44.11521" lon="0.73646">
        <ele>76</ele>
        <time>2022-08-09T16:42:53Z</time>
      </trkpt>
      <trkpt lat="44.11545" lon="0.73646">
        <ele>76</ele>
        <time>2022-08-09T16:42:58Z</time>
      </trkpt>
      <trkpt lat="44.11615" lon="0.73654">
        <ele>76</ele>
        <time>2022-08-09T16:43:10Z</time>
      </trkpt>
      <trkpt lat="44.11629" lon="0.73661">
        <ele>76</ele>
        <time>2022-08-09T16:43:13Z</time>
      </trkpt>
      <trkpt lat="44.11652" lon="0.73693">
        <ele>76</ele>
        <time>2022-08-09T16:43:18Z</time>
      </trkpt>
      <trkpt lat="44.11663" lon="0.737">
        <ele>76</ele>
        <time>2022-08-09T16:43:21Z</time>
      </trkpt>
      <trkpt lat="44.117" lon="0.73704">
        <ele>74</ele>
        <time>2022-08-09T16:43:27Z</time>
      </trkpt>
      <trkpt lat="44.11705" lon="0.73708">
        <ele>73</ele>
        <time>2022-08-09T16:43:28Z</time>
      </trkpt>
      <trkpt lat="44.11712" lon="0.73702">
        <ele>73</ele>
        <time>2022-08-09T16:43:30Z</time>
      </trkpt>
      <trkpt lat="44.11743" lon="0.73699">
        <ele>71</ele>
        <time>2022-08-09T16:43:35Z</time>
      </trkpt>
      <trkpt lat="44.11763" lon="0.7369">
        <ele>69</ele>
        <time>2022-08-09T16:43:39Z</time>
      </trkpt>
      <trkpt lat="44.11798" lon="0.7367">
        <ele>65</ele>
        <time>2022-08-09T16:43:46Z</time>
      </trkpt>
      <trkpt lat="44.1182" lon="0.73666">
        <ele>62</ele>
        <time>2022-08-09T16:43:50Z</time>
      </trkpt>
      <trkpt lat="44.11855" lon="0.73675">
        <ele>59</ele>
        <time>2022-08-09T16:43:56Z</time>
      </trkpt>
      <trkpt lat="44.11955" lon="0.73716">
        <ele>54</ele>
        <time>2022-08-09T16:44:15Z</time>
      </trkpt>
      <trkpt lat="44.11965" lon="0.7373">
        <ele>54</ele>
        <time>2022-08-09T16:44:17Z</time>
      </trkpt>
      <trkpt lat="44.11977" lon="0.73763">
        <ele>55</ele>
        <time>2022-08-09T16:44:22Z</time>
      </trkpt>
      <trkpt lat="44.12028" lon="0.73956">
        <ele>53</ele>
        <time>2022-08-09T16:44:48Z</time>
      </trkpt>
      <trkpt lat="44.12039" lon="0.73988">
        <ele>53</ele>
        <time>2022-08-09T16:44:53Z</time>
      </trkpt>
      <trkpt lat="44.12053" lon="0.74015">
        <ele>53</ele>
        <time>2022-08-09T16:44:57Z</time>
      </trkpt>
      <trkpt lat="44.12396" lon="0.74504">
        <ele>54</ele>
        <time>2022-08-09T16:46:24Z</time>
      </trkpt>
      <trkpt lat="44.12631" lon="0.74842">
        <ele>52</ele>
        <time>2022-08-09T16:47:24Z</time>
      </trkpt>
      <trkpt lat="44.12691" lon="0.74932">
        <ele>52</ele>
        <time>2022-08-09T16:47:40Z</time>
      </trkpt>
      <trkpt lat="44.12721" lon="0.74967">
        <ele>53</ele>
        <time>2022-08-09T16:47:47Z</time>
      </trkpt>
      <trkpt lat="44.12871" lon="0.75082">
        <ele>54</ele>
        <time>2022-08-09T16:48:17Z</time>
      </trkpt>
      <trkpt lat="44.12939" lon="0.75155">
        <ele>54</ele>
        <time>2022-08-09T16:48:33Z</time>
      </trkpt>
      <trkpt lat="44.13076" lon="0.7532">
        <ele>55</ele>
        <time>2022-08-09T16:49:05Z</time>
      </trkpt>
      <trkpt lat="44.13127" lon="0.75373">
        <ele>55</ele>
        <time>2022-08-09T16:49:16Z</time>
      </trkpt>
      <trkpt lat="44.13157" lon="0.75401">
        <ele>55</ele>
        <time>2022-08-09T16:49:23Z</time>
      </trkpt>
      <trkpt lat="44.13181" lon="0.75413">
        <ele>55</ele>
        <time>2022-08-09T16:49:27Z</time>
      </trkpt>
      <trkpt lat="44.13379" lon="0.75481">
        <ele>53</ele>
        <time>2022-08-09T16:50:03Z</time>
      </trkpt>
      <trkpt lat="44.13557" lon="0.75552">
        <ele>54</ele>
        <time>2022-08-09T16:50:36Z</time>
      </trkpt>
      <trkpt lat="44.13634" lon="0.75594">
        <ele>54</ele>
        <time>2022-08-09T16:50:51Z</time>
      </trkpt>
      <trkpt lat="44.13708" lon="0.75661">
        <ele>53</ele>
        <time>2022-08-09T16:51:07Z</time>
      </trkpt>
      <trkpt lat="44.13817" lon="0.75766">
        <ele>57</ele>
        <time>2022-08-09T16:51:30Z</time>
      </trkpt>
      <trkpt lat="44.13856" lon="0.75836">
        <ele>60</ele>
        <time>2022-08-09T16:51:42Z</time>
      </trkpt>
      <trkpt lat="44.13881" lon="0.75886">
        <ele>58</ele>
        <time>2022-08-09T16:51:49Z</time>
      </trkpt>
      <trkpt lat="44.13889" lon="0.75899">
        <ele>57</ele>
        <time>2022-08-09T16:51:52Z</time>
      </trkpt>
      <trkpt lat="44.13904" lon="0.75914">
        <ele>57</ele>
        <time>2022-08-09T16:51:55Z</time>
      </trkpt>
      <trkpt lat="44.13931" lon="0.75931">
        <ele>55</ele>
        <time>2022-08-09T16:52:00Z</time>
      </trkpt>
      <trkpt lat="44.14111" lon="0.7603">
        <ele>49</ele>
        <time>2022-08-09T16:52:35Z</time>
      </trkpt>
      <trkpt lat="44.14255" lon="0.76113">
        <ele>49</ele>
        <time>2022-08-09T16:53:02Z</time>
      </trkpt>
      <trkpt lat="44.14384" lon="0.76183">
        <ele>49</ele>
        <time>2022-08-09T16:53:27Z</time>
      </trkpt>
      <trkpt lat="44.14402" lon="0.76187">
        <ele>49</ele>
        <time>2022-08-09T16:53:30Z</time>
      </trkpt>
      <trkpt lat="44.14421" lon="0.76187">
        <ele>49</ele>
        <time>2022-08-09T16:53:34Z</time>
      </trkpt>
      <trkpt lat="44.14437" lon="0.76181">
        <ele>50</ele>
        <time>2022-08-09T16:53:37Z</time>
      </trkpt>
      <trkpt lat="44.14467" lon="0.76157">
        <ele>51</ele>
        <time>2022-08-09T16:53:43Z</time>
      </trkpt>
      <trkpt lat="44.14481" lon="0.76141">
        <ele>51</ele>
        <time>2022-08-09T16:53:46Z</time>
      </trkpt>
      <trkpt lat="44.14831" lon="0.75638">
        <ele>52</ele>
        <time>2022-08-09T16:55:15Z</time>
      </trkpt>
      <trkpt lat="44.14842" lon="0.75625">
        <ele>52</ele>
        <time>2022-08-09T16:55:18Z</time>
      </trkpt>
      <trkpt lat="44.14847" lon="0.75621">
        <ele>52</ele>
        <time>2022-08-09T16:55:19Z</time>
      </trkpt>
      <trkpt lat="44.14856" lon="0.75624">
        <ele>53</ele>
        <time>2022-08-09T16:55:21Z</time>
      </trkpt>
      <trkpt lat="44.14875" lon="0.75633">
        <ele>53</ele>
        <time>2022-08-09T16:55:24Z</time>
      </trkpt>
      <trkpt lat="44.14892" lon="0.75642">
        <ele>53</ele>
        <time>2022-08-09T16:55:27Z</time>
      </trkpt>
      <trkpt lat="44.14896" lon="0.75644">
        <ele>54</ele>
        <time>2022-08-09T16:55:28Z</time>
      </trkpt>
      <trkpt lat="44.14869" lon="0.75752">
        <ele>53</ele>
        <time>2022-08-09T16:55:43Z</time>
      </trkpt>
      <trkpt lat="44.14855" lon="0.75795">
        <ele>54</ele>
        <time>2022-08-09T16:55:49Z</time>
      </trkpt>
      <trkpt lat="44.14834" lon="0.75875">
        <ele>54</ele>
        <time>2022-08-09T16:56:00Z</time>
      </trkpt>
      <trkpt lat="44.14727" lon="0.76289">
        <ele>54</ele>
        <time>2022-08-09T16:56:56Z</time>
      </trkpt>
      <trkpt lat="44.14684" lon="0.76464">
        <ele>54</ele>
        <time>2022-08-09T16:57:20Z</time>
      </trkpt>
      <trkpt lat="44.1446" lon="0.77346">
        <ele>54</ele>
        <time>2022-08-09T16:59:19Z</time>
      </trkpt>
      <trkpt lat="44.14397" lon="0.77581">
        <ele>56</ele>
        <time>2022-08-09T16:59:51Z</time>
      </trkpt>
      <trkpt lat="44.14379" lon="0.77657">
        <ele>55</ele>
        <time>2022-08-09T17:00:01Z</time>
      </trkpt>
      <trkpt lat="44.14373" lon="0.77696">
        <ele>55</ele>
        <time>2022-08-09T17:00:06Z</time>
      </trkpt>
      <trkpt lat="44.14373" lon="0.77705">
        <ele>54</ele>
        <time>2022-08-09T17:00:07Z</time>
      </trkpt>
      <trkpt lat="44.14374" lon="0.77711">
        <ele>54</ele>
        <time>2022-08-09T17:00:08Z</time>
      </trkpt>
      <trkpt lat="44.14377" lon="0.77713">
        <ele>55</ele>
        <time>2022-08-09T17:00:09Z</time>
      </trkpt>
      <trkpt lat="44.14401" lon="0.7772">
        <ele>56</ele>
        <time>2022-08-09T17:00:13Z</time>
      </trkpt>
      <trkpt lat="44.14403" lon="0.77721">
        <ele>56</ele>
        <time>2022-08-09T17:00:14Z</time>
      </trkpt>
      <trkpt lat="44.14403" lon="0.77735">
        <ele>56</ele>
        <time>2022-08-09T17:00:15Z</time>
      </trkpt>
      <trkpt lat="44.14395" lon="0.7779">
        <ele>56</ele>
        <time>2022-08-09T17:00:23Z</time>
      </trkpt>
      <trkpt lat="44.1439" lon="0.77806">
        <ele>56</ele>
        <time>2022-08-09T17:00:25Z</time>
      </trkpt>
      <trkpt lat="44.14388" lon="0.7782">
        <ele>56</ele>
        <time>2022-08-09T17:00:27Z</time>
      </trkpt>
      <trkpt lat="44.14386" lon="0.77891">
        <ele>57</ele>
        <time>2022-08-09T17:00:36Z</time>
      </trkpt>
      <trkpt lat="44.14395" lon="0.78085">
        <ele>58</ele>
        <time>2022-08-09T17:01:00Z</time>
      </trkpt>
      <trkpt lat="44.14456" lon="0.78928">
        <ele>57</ele>
        <time>2022-08-09T17:02:49Z</time>
      </trkpt>
      <trkpt lat="44.14467" lon="0.79012">
        <ele>55</ele>
        <time>2022-08-09T17:03:00Z</time>
      </trkpt>
      <trkpt lat="44.14477" lon="0.79065">
        <ele>55</ele>
        <time>2022-08-09T17:03:07Z</time>
      </trkpt>
      <trkpt lat="44.14497" lon="0.79154">
        <ele>57</ele>
        <time>2022-08-09T17:03:18Z</time>
      </trkpt>
      <trkpt lat="44.14556" lon="0.79395">
        <ele>56</ele>
        <time>2022-08-09T17:03:51Z</time>
      </trkpt>
      <trkpt lat="44.14574" lon="0.79499">
        <ele>58</ele>
        <time>2022-08-09T17:04:05Z</time>
      </trkpt>
      <trkpt lat="44.14576" lon="0.79565">
        <ele>59</ele>
        <time>2022-08-09T17:04:13Z</time>
      </trkpt>
      <trkpt lat="44.14573" lon="0.7958">
        <ele>60</ele>
        <time>2022-08-09T17:04:15Z</time>
      </trkpt>
      <trkpt lat="44.14566" lon="0.79598">
        <ele>60</ele>
        <time>2022-08-09T17:04:18Z</time>
      </trkpt>
      <trkpt lat="44.14566" lon="0.7961">
        <ele>60</ele>
        <time>2022-08-09T17:04:19Z</time>
      </trkpt>
      <trkpt lat="44.1457" lon="0.79621">
        <ele>60</ele>
        <time>2022-08-09T17:04:21Z</time>
      </trkpt>
      <trkpt lat="44.14571" lon="0.79638">
        <ele>60</ele>
        <time>2022-08-09T17:04:23Z</time>
      </trkpt>
      <trkpt lat="44.14566" lon="0.79685">
        <ele>61</ele>
        <time>2022-08-09T17:04:29Z</time>
      </trkpt>
      <trkpt lat="44.14558" lon="0.79722">
        <ele>62</ele>
        <time>2022-08-09T17:04:34Z</time>
      </trkpt>
      <trkpt lat="44.14545" lon="0.79767">
        <ele>63</ele>
        <time>2022-08-09T17:04:40Z</time>
      </trkpt>
      <trkpt lat="44.14534" lon="0.798">
        <ele>64</ele>
        <time>2022-08-09T17:04:45Z</time>
      </trkpt>
      <trkpt lat="44.14497" lon="0.79892">
        <ele>61</ele>
        <time>2022-08-09T17:04:58Z</time>
      </trkpt>
      <trkpt lat="44.14233" lon="0.80576">
        <ele>54</ele>
        <time>2022-08-09T17:06:37Z</time>
      </trkpt>
      <trkpt lat="44.13876" lon="0.81471">
        <ele>58</ele>
        <time>2022-08-09T17:08:48Z</time>
      </trkpt>
      <trkpt lat="44.13813" lon="0.81552">
        <ele>59</ele>
        <time>2022-08-09T17:09:03Z</time>
      </trkpt>
      <trkpt lat="44.13812" lon="0.81559">
        <ele>58</ele>
        <time>2022-08-09T17:09:04Z</time>
      </trkpt>
      <trkpt lat="44.13802" lon="0.81562">
        <ele>58</ele>
        <time>2022-08-09T17:09:06Z</time>
      </trkpt>
      <trkpt lat="44.13796" lon="0.81567">
        <ele>58</ele>
        <time>2022-08-09T17:09:07Z</time>
      </trkpt>
      <trkpt lat="44.13776" lon="0.81589">
        <ele>58</ele>
        <time>2022-08-09T17:09:12Z</time>
      </trkpt>
      <trkpt lat="44.1377" lon="0.81593">
        <ele>58</ele>
        <time>2022-08-09T17:09:13Z</time>
      </trkpt>
      <trkpt lat="44.1376" lon="0.8159">
        <ele>58</ele>
        <time>2022-08-09T17:09:15Z</time>
      </trkpt>
      <trkpt lat="44.13756" lon="0.81585">
        <ele>59</ele>
        <time>2022-08-09T17:09:16Z</time>
      </trkpt>
      <trkpt lat="44.13737" lon="0.81554">
        <ele>58</ele>
        <time>2022-08-09T17:09:21Z</time>
      </trkpt>
      <trkpt lat="44.1373" lon="0.81548">
        <ele>58</ele>
        <time>2022-08-09T17:09:23Z</time>
      </trkpt>
      <trkpt lat="44.13723" lon="0.81547">
        <ele>57</ele>
        <time>2022-08-09T17:09:24Z</time>
      </trkpt>
      <trkpt lat="44.13718" lon="0.81549">
        <ele>57</ele>
        <time>2022-08-09T17:09:25Z</time>
      </trkpt>
      <trkpt lat="44.1371" lon="0.81557">
        <ele>57</ele>
        <time>2022-08-09T17:09:27Z</time>
      </trkpt>
      <trkpt lat="44.1372" lon="0.81565">
        <ele>57</ele>
        <time>2022-08-09T17:09:29Z</time>
      </trkpt>
      <trkpt lat="44.13721" lon="0.81569">
        <ele>57</ele>
        <time>2022-08-09T17:09:29Z</time>
      </trkpt>
      <trkpt lat="44.13717" lon="0.81575">
        <ele>57</ele>
        <time>2022-08-09T17:09:30Z</time>
      </trkpt>
      <trkpt lat="44.13605" lon="0.81703">
        <ele>54</ele>
        <time>2022-08-09T17:09:56Z</time>
      </trkpt>
      <trkpt lat="44.13472" lon="0.81859">
        <ele>54</ele>
        <time>2022-08-09T17:10:27Z</time>
      </trkpt>
      <trkpt lat="44.13417" lon="0.81933">
        <ele>57</ele>
        <time>2022-08-09T17:10:40Z</time>
      </trkpt>
      <trkpt lat="44.13366" lon="0.82029">
        <ele>56</ele>
        <time>2022-08-09T17:10:56Z</time>
      </trkpt>
      <trkpt lat="44.13343" lon="0.82082">
        <ele>55</ele>
        <time>2022-08-09T17:11:04Z</time>
      </trkpt>
      <trkpt lat="44.13292" lon="0.82206">
        <ele>55</ele>
        <time>2022-08-09T17:11:22Z</time>
      </trkpt>
      <trkpt lat="44.13294" lon="0.82214">
        <ele>55</ele>
        <time>2022-08-09T17:11:23Z</time>
      </trkpt>
      <trkpt lat="44.1329" lon="0.82233">
        <ele>55</ele>
        <time>2022-08-09T17:11:25Z</time>
      </trkpt>
      <trkpt lat="44.13293" lon="0.82239">
        <ele>55</ele>
        <time>2022-08-09T17:11:26Z</time>
      </trkpt>
      <trkpt lat="44.13292" lon="0.82244">
        <ele>55</ele>
        <time>2022-08-09T17:11:27Z</time>
      </trkpt>
      <trkpt lat="44.13285" lon="0.82261">
        <ele>56</ele>
        <time>2022-08-09T17:11:30Z</time>
      </trkpt>
      <trkpt lat="44.13273" lon="0.82266">
        <ele>56</ele>
        <time>2022-08-09T17:11:32Z</time>
      </trkpt>
      <trkpt lat="44.13261" lon="0.82286">
        <ele>56</ele>
        <time>2022-08-09T17:11:35Z</time>
      </trkpt>
      <trkpt lat="44.13235" lon="0.82317">
        <ele>56</ele>
        <time>2022-08-09T17:11:41Z</time>
      </trkpt>
      <trkpt lat="44.13229" lon="0.82319">
        <ele>56</ele>
        <time>2022-08-09T17:11:42Z</time>
      </trkpt>
      <trkpt lat="44.13133" lon="0.82551">
        <ele>55</ele>
        <time>2022-08-09T17:12:17Z</time>
      </trkpt>
      <trkpt lat="44.13134" lon="0.82583">
        <ele>55</ele>
        <time>2022-08-09T17:12:21Z</time>
      </trkpt>
      <trkpt lat="44.1313" lon="0.82595">
        <ele>55</ele>
        <time>2022-08-09T17:12:22Z</time>
      </trkpt>
      <trkpt lat="44.13001" lon="0.82904">
        <ele>56</ele>
        <time>2022-08-09T17:13:08Z</time>
      </trkpt>
      <trkpt lat="44.12821" lon="0.83337">
        <ele>57</ele>
        <time>2022-08-09T17:14:12Z</time>
      </trkpt>
      <trkpt lat="44.12819" lon="0.8335">
        <ele>57</ele>
        <time>2022-08-09T17:14:14Z</time>
      </trkpt>
      <trkpt lat="44.12805" lon="0.83397">
        <ele>57</ele>
        <time>2022-08-09T17:14:20Z</time>
      </trkpt>
      <trkpt lat="44.12505" lon="0.84121">
        <ele>57</ele>
        <time>2022-08-09T17:16:07Z</time>
      </trkpt>
      <trkpt lat="44.12438" lon="0.8425">
        <ele>58</ele>
        <time>2022-08-09T17:16:27Z</time>
      </trkpt>
      <trkpt lat="44.12334" lon="0.84378">
        <ele>59</ele>
        <time>2022-08-09T17:16:52Z</time>
      </trkpt>
      <trkpt lat="44.12197" lon="0.84539">
        <ele>56</ele>
        <time>2022-08-09T17:17:24Z</time>
      </trkpt>
      <trkpt lat="44.12181" lon="0.84564">
        <ele>56</ele>
        <time>2022-08-09T17:17:28Z</time>
      </trkpt>
      <trkpt lat="44.12151" lon="0.84596">
        <ele>55</ele>
        <time>2022-08-09T17:17:35Z</time>
      </trkpt>
      <trkpt lat="44.12142" lon="0.84618">
        <ele>55</ele>
        <time>2022-08-09T17:17:38Z</time>
      </trkpt>
      <trkpt lat="44.12117" lon="0.84646">
        <ele>56</ele>
        <time>2022-08-09T17:17:44Z</time>
      </trkpt>
      <trkpt lat="44.12097" lon="0.84657">
        <ele>56</ele>
        <time>2022-08-09T17:17:48Z</time>
      </trkpt>
      <trkpt lat="44.1184" lon="0.84959">
        <ele>56</ele>
        <time>2022-08-09T17:18:47Z</time>
      </trkpt>
      <trkpt lat="44.11815" lon="0.84996">
        <ele>57</ele>
        <time>2022-08-09T17:18:54Z</time>
      </trkpt>
      <trkpt lat="44.11794" lon="0.85034">
        <ele>56</ele>
        <time>2022-08-09T17:19:00Z</time>
      </trkpt>
      <trkpt lat="44.11779" lon="0.85064">
        <ele>56</ele>
        <time>2022-08-09T17:19:05Z</time>
      </trkpt>
      <trkpt lat="44.11748" lon="0.85148">
        <ele>59</ele>
        <time>2022-08-09T17:19:17Z</time>
      </trkpt>
      <trkpt lat="44.11738" lon="0.85187">
        <ele>59</ele>
        <time>2022-08-09T17:19:22Z</time>
      </trkpt>
      <trkpt lat="44.11731" lon="0.8523">
        <ele>58</ele>
        <time>2022-08-09T17:19:28Z</time>
      </trkpt>
      <trkpt lat="44.11723" lon="0.85277">
        <ele>58</ele>
        <time>2022-08-09T17:19:34Z</time>
      </trkpt>
      <trkpt lat="44.11715" lon="0.85354">
        <ele>58</ele>
        <time>2022-08-09T17:19:44Z</time>
      </trkpt>
      <trkpt lat="44.11708" lon="0.85389">
        <ele>57</ele>
        <time>2022-08-09T17:19:48Z</time>
      </trkpt>
      <trkpt lat="44.117" lon="0.85458">
        <ele>57</ele>
        <time>2022-08-09T17:19:57Z</time>
      </trkpt>
      <trkpt lat="44.11686" lon="0.85559">
        <ele>58</ele>
        <time>2022-08-09T17:20:10Z</time>
      </trkpt>
      <trkpt lat="44.1158" lon="0.86412">
        <ele>59</ele>
        <time>2022-08-09T17:22:01Z</time>
      </trkpt>
      <trkpt lat="44.11578" lon="0.86461">
        <ele>59</ele>
        <time>2022-08-09T17:22:07Z</time>
      </trkpt>
      <trkpt lat="44.11576" lon="0.86482">
        <ele>60</ele>
        <time>2022-08-09T17:22:10Z</time>
      </trkpt>
      <trkpt lat="44.11568" lon="0.86514">
        <ele>59</ele>
        <time>2022-08-09T17:22:14Z</time>
      </trkpt>
      <trkpt lat="44.11519" lon="0.86923">
        <ele>61</ele>
        <time>2022-08-09T17:23:07Z</time>
      </trkpt>
      <trkpt lat="44.11512" lon="0.86965">
        <ele>61</ele>
        <time>2022-08-09T17:23:13Z</time>
      </trkpt>
      <trkpt lat="44.115" lon="0.87012">
        <ele>62</ele>
        <time>2022-08-09T17:23:19Z</time>
      </trkpt>
      <trkpt lat="44.1149" lon="0.8704">
        <ele>61</ele>
        <time>2022-08-09T17:23:23Z</time>
      </trkpt>
      <trkpt lat="44.11459" lon="0.87099">
        <ele>61</ele>
        <time>2022-08-09T17:23:33Z</time>
      </trkpt>
      <trkpt lat="44.11454" lon="0.87115">
        <ele>61</ele>
        <time>2022-08-09T17:23:35Z</time>
      </trkpt>
      <trkpt lat="44.1144" lon="0.87127">
        <ele>61</ele>
        <time>2022-08-09T17:23:38Z</time>
      </trkpt>
      <trkpt lat="44.11429" lon="0.87125">
        <ele>61</ele>
        <time>2022-08-09T17:23:40Z</time>
      </trkpt>
      <trkpt lat="44.11397" lon="0.87153">
        <ele>61</ele>
        <time>2022-08-09T17:23:46Z</time>
      </trkpt>
      <trkpt lat="44.11366" lon="0.87168">
        <ele>61</ele>
        <time>2022-08-09T17:23:52Z</time>
      </trkpt>
      <trkpt lat="44.11325" lon="0.87177">
        <ele>61</ele>
        <time>2022-08-09T17:24:00Z</time>
      </trkpt>
      <trkpt lat="44.11304" lon="0.87177">
        <ele>61</ele>
        <time>2022-08-09T17:24:03Z</time>
      </trkpt>
      <trkpt lat="44.11297" lon="0.87181">
        <ele>62</ele>
        <time>2022-08-09T17:24:05Z</time>
      </trkpt>
      <trkpt lat="44.11283" lon="0.8718">
        <ele>62</ele>
        <time>2022-08-09T17:24:07Z</time>
      </trkpt>
      <trkpt lat="44.11278" lon="0.87174">
        <ele>62</ele>
        <time>2022-08-09T17:24:08Z</time>
      </trkpt>
      <trkpt lat="44.11258" lon="0.87168">
        <ele>62</ele>
        <time>2022-08-09T17:24:12Z</time>
      </trkpt>
      <trkpt lat="44.11247" lon="0.87168">
        <ele>62</ele>
        <time>2022-08-09T17:24:14Z</time>
      </trkpt>
      <trkpt lat="44.11234" lon="0.8717">
        <ele>63</ele>
        <time>2022-08-09T17:24:16Z</time>
      </trkpt>
      <trkpt lat="44.11202" lon="0.87181">
        <ele>64</ele>
        <time>2022-08-09T17:24:22Z</time>
      </trkpt>
      <trkpt lat="44.1119" lon="0.87188">
        <ele>65</ele>
        <time>2022-08-09T17:24:24Z</time>
      </trkpt>
      <trkpt lat="44.11161" lon="0.87225">
        <ele>66</ele>
        <time>2022-08-09T17:24:31Z</time>
      </trkpt>
      <trkpt lat="44.11147" lon="0.87248">
        <ele>67</ele>
        <time>2022-08-09T17:24:35Z</time>
      </trkpt>
      <trkpt lat="44.10591" lon="0.88589">
        <ele>61</ele>
        <time>2022-08-09T17:27:53Z</time>
      </trkpt>
      <trkpt lat="44.10587" lon="0.88593">
        <ele>62</ele>
        <time>2022-08-09T17:27:54Z</time>
      </trkpt>
      <trkpt lat="44.10575" lon="0.8859">
        <ele>62</ele>
        <time>2022-08-09T17:27:56Z</time>
      </trkpt>
      <trkpt lat="44.10566" lon="0.88583">
        <ele>61</ele>
        <time>2022-08-09T17:27:58Z</time>
      </trkpt>
      <trkpt lat="44.10556" lon="0.8857">
        <ele>61</ele>
        <time>2022-08-09T17:28:00Z</time>
      </trkpt>
      <trkpt lat="44.10552" lon="0.8856">
        <ele>61</ele>
        <time>2022-08-09T17:28:02Z</time>
      </trkpt>
      <trkpt lat="44.10547" lon="0.88556">
        <ele>60</ele>
        <time>2022-08-09T17:28:03Z</time>
      </trkpt>
      <trkpt lat="44.10542" lon="0.88558">
        <ele>60</ele>
        <time>2022-08-09T17:28:04Z</time>
      </trkpt>
      <trkpt lat="44.1054" lon="0.8858">
        <ele>60</ele>
        <time>2022-08-09T17:28:07Z</time>
      </trkpt>
      <trkpt lat="44.10541" lon="0.88596">
        <ele>60</ele>
        <time>2022-08-09T17:28:09Z</time>
      </trkpt>
      <trkpt lat="44.10547" lon="0.88606">
        <ele>60</ele>
        <time>2022-08-09T17:28:10Z</time>
      </trkpt>
      <trkpt lat="44.10564" lon="0.88617">
        <ele>61</ele>
        <time>2022-08-09T17:28:14Z</time>
      </trkpt>
      <trkpt lat="44.10566" lon="0.88622">
        <ele>61</ele>
        <time>2022-08-09T17:28:14Z</time>
      </trkpt>
      <trkpt lat="44.10565" lon="0.88628">
        <ele>61</ele>
        <time>2022-08-09T17:28:15Z</time>
      </trkpt>
      <trkpt lat="44.10537" lon="0.88709">
        <ele>59</ele>
        <time>2022-08-09T17:28:27Z</time>
      </trkpt>
      <trkpt lat="44.10505" lon="0.88796">
        <ele>59</ele>
        <time>2022-08-09T17:28:39Z</time>
      </trkpt>
      <trkpt lat="44.10447" lon="0.88935">
        <ele>60</ele>
        <time>2022-08-09T17:29:00Z</time>
      </trkpt>
      <trkpt lat="44.10435" lon="0.88973">
        <ele>61</ele>
        <time>2022-08-09T17:29:05Z</time>
      </trkpt>
      <trkpt lat="44.10426" lon="0.89013">
        <ele>62</ele>
        <time>2022-08-09T17:29:10Z</time>
      </trkpt>
      <trkpt lat="44.10418" lon="0.89064">
        <ele>63</ele>
        <time>2022-08-09T17:29:17Z</time>
      </trkpt>
      <trkpt lat="44.10416" lon="0.89116">
        <ele>62</ele>
        <time>2022-08-09T17:29:24Z</time>
      </trkpt>
      <trkpt lat="44.10415" lon="0.89188">
        <ele>61</ele>
        <time>2022-08-09T17:29:33Z</time>
      </trkpt>
      <trkpt lat="44.10411" lon="0.89206">
        <ele>62</ele>
        <time>2022-08-09T17:29:35Z</time>
      </trkpt>
      <trkpt lat="44.1041" lon="0.8922">
        <ele>62</ele>
        <time>2022-08-09T17:29:37Z</time>
      </trkpt>
      <trkpt lat="44.10416" lon="0.89245">
        <ele>62</ele>
        <time>2022-08-09T17:29:41Z</time>
      </trkpt>
      <trkpt lat="44.10417" lon="0.89261">
        <ele>62</ele>
        <time>2022-08-09T17:29:43Z</time>
      </trkpt>
      <trkpt lat="44.10415" lon="0.89275">
        <ele>63</ele>
        <time>2022-08-09T17:29:44Z</time>
      </trkpt>
      <trkpt lat="44.1041" lon="0.8929">
        <ele>63</ele>
        <time>2022-08-09T17:29:47Z</time>
      </trkpt>
      <trkpt lat="44.10409" lon="0.89347">
        <ele>65</ele>
        <time>2022-08-09T17:29:54Z</time>
      </trkpt>
      <trkpt lat="44.10413" lon="0.89361">
        <ele>65</ele>
        <time>2022-08-09T17:29:56Z</time>
      </trkpt>
      <trkpt lat="44.10415" lon="0.89379">
        <ele>66</ele>
        <time>2022-08-09T17:29:58Z</time>
      </trkpt>
      <trkpt lat="44.10414" lon="0.89762">
        <ele>65</ele>
        <time>2022-08-09T17:30:47Z</time>
      </trkpt>
      <trkpt lat="44.10411" lon="0.89832">
        <ele>63</ele>
        <time>2022-08-09T17:30:56Z</time>
      </trkpt>
      <trkpt lat="44.10402" lon="0.89911">
        <ele>63</ele>
        <time>2022-08-09T17:31:06Z</time>
      </trkpt>
      <trkpt lat="44.10366" lon="0.90072">
        <ele>64</ele>
        <time>2022-08-09T17:31:28Z</time>
      </trkpt>
      <trkpt lat="44.10366" lon="0.90098">
        <ele>64</ele>
        <time>2022-08-09T17:31:31Z</time>
      </trkpt>
      <trkpt lat="44.10044" lon="0.91414">
        <ele>64</ele>
        <time>2022-08-09T17:34:29Z</time>
      </trkpt>
      <trkpt lat="44.10031" lon="0.91471">
        <ele>65</ele>
        <time>2022-08-09T17:34:36Z</time>
      </trkpt>
      <trkpt lat="44.10017" lon="0.91548">
        <ele>63</ele>
        <time>2022-08-09T17:34:46Z</time>
      </trkpt>
      <trkpt lat="44.10006" lon="0.9159">
        <ele>62</ele>
        <time>2022-08-09T17:34:52Z</time>
      </trkpt>
      <trkpt lat="44.10003" lon="0.91634">
        <ele>63</ele>
        <time>2022-08-09T17:34:58Z</time>
      </trkpt>
      <trkpt lat="44.10004" lon="0.91659">
        <ele>64</ele>
        <time>2022-08-09T17:35:01Z</time>
      </trkpt>
      <trkpt lat="44.09905" lon="0.92423">
        <ele>66</ele>
        <time>2022-08-09T17:36:40Z</time>
      </trkpt>
      <trkpt lat="44.09697" lon="0.93446">
        <ele>69</ele>
        <time>2022-08-09T17:38:56Z</time>
      </trkpt>
      <trkpt lat="44.09544" lon="0.94185">
        <ele>68</ele>
        <time>2022-08-09T17:40:34Z</time>
      </trkpt>
      <trkpt lat="44.09389" lon="0.94914">
        <ele>73</ele>
        <time>2022-08-09T17:42:11Z</time>
      </trkpt>
      <trkpt lat="44.09352" lon="0.95045">
        <ele>74</ele>
        <time>2022-08-09T17:42:29Z</time>
      </trkpt>
      <trkpt lat="44.09264" lon="0.95373">
        <ele>71</ele>
        <time>2022-08-09T17:43:14Z</time>
      </trkpt>
      <trkpt lat="44.08977" lon="0.96391">
        <ele>69</ele>
        <time>2022-08-09T17:45:34Z</time>
      </trkpt>
      <trkpt lat="44.08965" lon="0.96402">
        <ele>69</ele>
        <time>2022-08-09T17:45:37Z</time>
      </trkpt>
      <trkpt lat="44.08961" lon="0.9641">
        <ele>69</ele>
        <time>2022-08-09T17:45:38Z</time>
      </trkpt>
      <trkpt lat="44.0896" lon="0.96419">
        <ele>69</ele>
        <time>2022-08-09T17:45:39Z</time>
      </trkpt>
      <trkpt lat="44.08962" lon="0.96447">
        <ele>69</ele>
        <time>2022-08-09T17:45:43Z</time>
      </trkpt>
      <trkpt lat="44.08818" lon="0.96963">
        <ele>67</ele>
        <time>2022-08-09T17:46:53Z</time>
      </trkpt>
      <trkpt lat="44.08811" lon="0.96981">
        <ele>67</ele>
        <time>2022-08-09T17:46:56Z</time>
      </trkpt>
      <trkpt lat="44.08803" lon="0.96984">
        <ele>66</ele>
        <time>2022-08-09T17:46:57Z</time>
      </trkpt>
      <trkpt lat="44.08758" lon="0.97129">
        <ele>66</ele>
        <time>2022-08-09T17:47:18Z</time>
      </trkpt>
      <trkpt lat="44.08741" lon="0.97178">
        <ele>67</ele>
        <time>2022-08-09T17:47:25Z</time>
      </trkpt>
      <trkpt lat="44.08712" lon="0.97242">
        <ele>67</ele>
        <time>2022-08-09T17:47:34Z</time>
      </trkpt>
      <trkpt lat="44.08664" lon="0.97322">
        <ele>66</ele>
        <time>2022-08-09T17:47:48Z</time>
      </trkpt>
      <trkpt lat="44.08484" lon="0.97594">
        <ele>66</ele>
        <time>2022-08-09T17:48:35Z</time>
      </trkpt>
      <trkpt lat="44.08459" lon="0.97636">
        <ele>67</ele>
        <time>2022-08-09T17:48:42Z</time>
      </trkpt>
      <trkpt lat="44.08425" lon="0.97708">
        <ele>67</ele>
        <time>2022-08-09T17:48:53Z</time>
      </trkpt>
      <trkpt lat="44.08399" lon="0.97787">
        <ele>68</ele>
        <time>2022-08-09T17:49:04Z</time>
      </trkpt>
      <trkpt lat="44.08392" lon="0.97814">
        <ele>68</ele>
        <time>2022-08-09T17:49:08Z</time>
      </trkpt>
      <trkpt lat="44.08362" lon="0.97988">
        <ele>68</ele>
        <time>2022-08-09T17:49:30Z</time>
      </trkpt>
      <trkpt lat="44.08358" lon="0.98023">
        <ele>68</ele>
        <time>2022-08-09T17:49:35Z</time>
      </trkpt>
      <trkpt lat="44.08345" lon="0.98093">
        <ele>68</ele>
        <time>2022-08-09T17:49:44Z</time>
      </trkpt>
      <trkpt lat="44.08342" lon="0.9814">
        <ele>67</ele>
        <time>2022-08-09T17:49:50Z</time>
      </trkpt>
      <trkpt lat="44.08343" lon="0.98188">
        <ele>67</ele>
        <time>2022-08-09T17:49:56Z</time>
      </trkpt>
      <trkpt lat="44.08359" lon="0.9829">
        <ele>68</ele>
        <time>2022-08-09T17:50:10Z</time>
      </trkpt>
      <trkpt lat="44.0838" lon="0.98395">
        <ele>68</ele>
        <time>2022-08-09T17:50:24Z</time>
      </trkpt>
      <trkpt lat="44.08388" lon="0.98417">
        <ele>68</ele>
        <time>2022-08-09T17:50:27Z</time>
      </trkpt>
      <trkpt lat="44.08402" lon="0.98448">
        <ele>67</ele>
        <time>2022-08-09T17:50:31Z</time>
      </trkpt>
      <trkpt lat="44.08435" lon="0.985">
        <ele>67</ele>
        <time>2022-08-09T17:50:40Z</time>
      </trkpt>
      <trkpt lat="44.08946" lon="0.9918">
        <ele>71</ele>
        <time>2022-08-09T17:52:46Z</time>
      </trkpt>
      <trkpt lat="44.09001" lon="0.99309">
        <ele>73</ele>
        <time>2022-08-09T17:53:05Z</time>
      </trkpt>
      <trkpt lat="44.09038" lon="0.99455">
        <ele>68</ele>
        <time>2022-08-09T17:53:25Z</time>
      </trkpt>
      <trkpt lat="44.0916" lon="1.00472">
        <ele>70</ele>
        <time>2022-08-09T17:55:37Z</time>
      </trkpt>
      <trkpt lat="44.09157" lon="1.0054">
        <ele>69</ele>
        <time>2022-08-09T17:55:46Z</time>
      </trkpt>
      <trkpt lat="44.0915" lon="1.0057">
        <ele>67</ele>
        <time>2022-08-09T17:55:50Z</time>
      </trkpt>
      <trkpt lat="44.09147" lon="1.00638">
        <ele>68</ele>
        <time>2022-08-09T17:55:58Z</time>
      </trkpt>
      <trkpt lat="44.09118" lon="1.00841">
        <ele>70</ele>
        <time>2022-08-09T17:56:25Z</time>
      </trkpt>
      <trkpt lat="44.09111" lon="1.00943">
        <ele>70</ele>
        <time>2022-08-09T17:56:38Z</time>
      </trkpt>
      <trkpt lat="44.09122" lon="1.01364">
        <ele>69</ele>
        <time>2022-08-09T17:57:32Z</time>
      </trkpt>
      <trkpt lat="44.09127" lon="1.01441">
        <ele>70</ele>
        <time>2022-08-09T17:57:42Z</time>
      </trkpt>
      <trkpt lat="44.09141" lon="1.01544">
        <ele>70</ele>
        <time>2022-08-09T17:57:55Z</time>
      </trkpt>
      <trkpt lat="44.09166" lon="1.01647">
        <ele>70</ele>
        <time>2022-08-09T17:58:09Z</time>
      </trkpt>
      <trkpt lat="44.09195" lon="1.01738">
        <ele>70</ele>
        <time>2022-08-09T17:58:22Z</time>
      </trkpt>
      <trkpt lat="44.09328" lon="1.02068">
        <ele>67</ele>
        <time>2022-08-09T17:59:10Z</time>
      </trkpt>
      <trkpt lat="44.09356" lon="1.02156">
        <ele>68</ele>
        <time>2022-08-09T17:59:22Z</time>
      </trkpt>
      <trkpt lat="44.09371" lon="1.02214">
        <ele>68</ele>
        <time>2022-08-09T17:59:30Z</time>
      </trkpt>
      <trkpt lat="44.09386" lon="1.02313">
        <ele>65</ele>
        <time>2022-08-09T17:59:43Z</time>
      </trkpt>
      <trkpt lat="44.09391" lon="1.02384">
        <ele>66</ele>
        <time>2022-08-09T17:59:52Z</time>
      </trkpt>
      <trkpt lat="44.09392" lon="1.02493">
        <ele>68</ele>
        <time>2022-08-09T18:00:06Z</time>
      </trkpt>
      <trkpt lat="44.09378" lon="1.02601">
        <ele>68</ele>
        <time>2022-08-09T18:00:20Z</time>
      </trkpt>
      <trkpt lat="44.09355" lon="1.02708">
        <ele>70</ele>
        <time>2022-08-09T18:00:34Z</time>
      </trkpt>
      <trkpt lat="44.09292" lon="1.0292">
        <ele>69</ele>
        <time>2022-08-09T18:01:04Z</time>
      </trkpt>
      <trkpt lat="44.0926" lon="1.03034">
        <ele>69</ele>
        <time>2022-08-09T18:01:19Z</time>
      </trkpt>
      <trkpt lat="44.09238" lon="1.03152">
        <ele>68</ele>
        <time>2022-08-09T18:01:35Z</time>
      </trkpt>
      <trkpt lat="44.09219" lon="1.03344">
        <ele>68</ele>
        <time>2022-08-09T18:02:00Z</time>
      </trkpt>
      <trkpt lat="44.09185" lon="1.03541">
        <ele>69</ele>
        <time>2022-08-09T18:02:26Z</time>
      </trkpt>
      <trkpt lat="44.09135" lon="1.03712">
        <ele>69</ele>
        <time>2022-08-09T18:02:49Z</time>
      </trkpt>
      <trkpt lat="44.09007" lon="1.04042">
        <ele>70</ele>
        <time>2022-08-09T18:03:37Z</time>
      </trkpt>
      <trkpt lat="44.08998" lon="1.04075">
        <ele>71</ele>
        <time>2022-08-09T18:03:42Z</time>
      </trkpt>
      <trkpt lat="44.08992" lon="1.04114">
        <ele>71</ele>
        <time>2022-08-09T18:03:47Z</time>
      </trkpt>
      <trkpt lat="44.08991" lon="1.04164">
        <ele>72</ele>
        <time>2022-08-09T18:03:53Z</time>
      </trkpt>
      <trkpt lat="44.08992" lon="1.04187">
        <ele>72</ele>
        <time>2022-08-09T18:03:56Z</time>
      </trkpt>
      <trkpt lat="44.08994" lon="1.04213">
        <ele>72</ele>
        <time>2022-08-09T18:03:59Z</time>
      </trkpt>
      <trkpt lat="44.09046" lon="1.04555">
        <ele>71</ele>
        <time>2022-08-09T18:04:44Z</time>
      </trkpt>
      <trkpt lat="44.09059" lon="1.0461">
        <ele>70</ele>
        <time>2022-08-09T18:04:51Z</time>
      </trkpt>
      <trkpt lat="44.0907" lon="1.04644">
        <ele>70</ele>
        <time>2022-08-09T18:04:56Z</time>
      </trkpt>
      <trkpt lat="44.09099" lon="1.04711">
        <ele>71</ele>
        <time>2022-08-09T18:05:06Z</time>
      </trkpt>
      <trkpt lat="44.09208" lon="1.04916">
        <ele>72</ele>
        <time>2022-08-09T18:05:39Z</time>
      </trkpt>
      <trkpt lat="44.09306" lon="1.05105">
        <ele>70</ele>
        <time>2022-08-09T18:06:09Z</time>
      </trkpt>
      <trkpt lat="44.09327" lon="1.05138">
        <ele>70</ele>
        <time>2022-08-09T18:06:14Z</time>
      </trkpt>
      <trkpt lat="44.09376" lon="1.05236">
        <ele>70</ele>
        <time>2022-08-09T18:06:29Z</time>
      </trkpt>
      <trkpt lat="44.09409" lon="1.05306">
        <ele>70</ele>
        <time>2022-08-09T18:06:40Z</time>
      </trkpt>
      <trkpt lat="44.09446" lon="1.05395">
        <ele>69</ele>
        <time>2022-08-09T18:06:53Z</time>
      </trkpt>
      <trkpt lat="44.09465" lon="1.05453">
        <ele>70</ele>
        <time>2022-08-09T18:07:01Z</time>
      </trkpt>
      <trkpt lat="44.09479" lon="1.05502">
        <ele>70</ele>
        <time>2022-08-09T18:07:08Z</time>
      </trkpt>
      <trkpt lat="44.09501" lon="1.05604">
        <ele>71</ele>
        <time>2022-08-09T18:07:22Z</time>
      </trkpt>
      <trkpt lat="44.09509" lon="1.05653">
        <ele>72</ele>
        <time>2022-08-09T18:07:28Z</time>
      </trkpt>
      <trkpt lat="44.09525" lon="1.05783">
        <ele>70</ele>
        <time>2022-08-09T18:07:45Z</time>
      </trkpt>
      <trkpt lat="44.0955" lon="1.061">
        <ele>69</ele>
        <time>2022-08-09T18:08:26Z</time>
      </trkpt>
      <trkpt lat="44.09556" lon="1.06145">
        <ele>69</ele>
        <time>2022-08-09T18:08:32Z</time>
      </trkpt>
      <trkpt lat="44.09565" lon="1.06188">
        <ele>69</ele>
        <time>2022-08-09T18:08:37Z</time>
      </trkpt>
      <trkpt lat="44.09584" lon="1.06257">
        <ele>70</ele>
        <time>2022-08-09T18:08:47Z</time>
      </trkpt>
      <trkpt lat="44.09599" lon="1.06299">
        <ele>69</ele>
        <time>2022-08-09T18:08:53Z</time>
      </trkpt>
      <trkpt lat="44.0962" lon="1.06345">
        <ele>68</ele>
        <time>2022-08-09T18:09:00Z</time>
      </trkpt>
      <trkpt lat="44.09639" lon="1.06378">
        <ele>68</ele>
        <time>2022-08-09T18:09:05Z</time>
      </trkpt>
      <trkpt lat="44.0979" lon="1.06606">
        <ele>71</ele>
        <time>2022-08-09T18:09:45Z</time>
      </trkpt>
      <trkpt lat="44.09849" lon="1.06691">
        <ele>73</ele>
        <time>2022-08-09T18:10:00Z</time>
      </trkpt>
      <trkpt lat="44.09877" lon="1.06739">
        <ele>73</ele>
        <time>2022-08-09T18:10:08Z</time>
      </trkpt>
      <trkpt lat="44.09905" lon="1.0679">
        <ele>72</ele>
        <time>2022-08-09T18:10:16Z</time>
      </trkpt>
      <trkpt lat="44.10003" lon="1.07034">
        <ele>72</ele>
        <time>2022-08-09T18:10:52Z</time>
      </trkpt>
      <trkpt lat="44.10045" lon="1.07153">
        <ele>73</ele>
        <time>2022-08-09T18:11:09Z</time>
      </trkpt>
      <trkpt lat="44.1007" lon="1.07249">
        <ele>71</ele>
        <time>2022-08-09T18:11:22Z</time>
      </trkpt>
      <trkpt lat="44.1008" lon="1.07321">
        <ele>69</ele>
        <time>2022-08-09T18:11:31Z</time>
      </trkpt>
      <trkpt lat="44.10084" lon="1.07366">
        <ele>69</ele>
        <time>2022-08-09T18:11:37Z</time>
      </trkpt>
      <trkpt lat="44.10083" lon="1.0739">
        <ele>70</ele>
        <time>2022-08-09T18:11:40Z</time>
      </trkpt>
      <trkpt lat="44.10086" lon="1.07397">
        <ele>70</ele>
        <time>2022-08-09T18:11:41Z</time>
      </trkpt>
      <trkpt lat="44.10088" lon="1.07423">
        <ele>70</ele>
        <time>2022-08-09T18:11:44Z</time>
      </trkpt>
      <trkpt lat="44.10086" lon="1.07676">
        <ele>70</ele>
        <time>2022-08-09T18:12:17Z</time>
      </trkpt>
      <trkpt lat="44.10086" lon="1.07739">
        <ele>70</ele>
        <time>2022-08-09T18:12:25Z</time>
      </trkpt>
      <trkpt lat="44.10088" lon="1.07756">
        <ele>70</ele>
        <time>2022-08-09T18:12:27Z</time>
      </trkpt>
      <trkpt lat="44.10085" lon="1.0776">
        <ele>70</ele>
        <time>2022-08-09T18:12:28Z</time>
      </trkpt>
      <trkpt lat="44.10082" lon="1.07788">
        <ele>70</ele>
        <time>2022-08-09T18:12:31Z</time>
      </trkpt>
      <trkpt lat="44.10081" lon="1.07799">
        <ele>70</ele>
        <time>2022-08-09T18:12:33Z</time>
      </trkpt>
      <trkpt lat="44.10083" lon="1.07804">
        <ele>70</ele>
        <time>2022-08-09T18:12:33Z</time>
      </trkpt>
      <trkpt lat="44.10087" lon="1.07806">
        <ele>70</ele>
        <time>2022-08-09T18:12:34Z</time>
      </trkpt>
      <trkpt lat="44.10091" lon="1.07806">
        <ele>70</ele>
        <time>2022-08-09T18:12:35Z</time>
      </trkpt>
      <trkpt lat="44.10095" lon="1.07802">
        <ele>71</ele>
        <time>2022-08-09T18:12:36Z</time>
      </trkpt>
      <trkpt lat="44.10109" lon="1.07812">
        <ele>71</ele>
        <time>2022-08-09T18:12:39Z</time>
      </trkpt>
      <trkpt lat="44.10114" lon="1.07822">
        <ele>71</ele>
        <time>2022-08-09T18:12:40Z</time>
      </trkpt>
      <trkpt lat="44.10188" lon="1.08081">
        <ele>73</ele>
        <time>2022-08-09T18:13:16Z</time>
      </trkpt>
      <trkpt lat="44.10231" lon="1.08242">
        <ele>74</ele>
        <time>2022-08-09T18:13:38Z</time>
      </trkpt>
      <trkpt lat="44.10232" lon="1.08251">
        <ele>74</ele>
        <time>2022-08-09T18:13:39Z</time>
      </trkpt>
      <trkpt lat="44.10229" lon="1.08256">
        <ele>74</ele>
        <time>2022-08-09T18:13:40Z</time>
      </trkpt>
      <trkpt lat="44.10225" lon="1.08259">
        <ele>74</ele>
        <time>2022-08-09T18:13:41Z</time>
      </trkpt>
      <trkpt lat="44.10219" lon="1.0826">
        <ele>74</ele>
        <time>2022-08-09T18:13:42Z</time>
      </trkpt>
      <trkpt lat="44.10205" lon="1.08258">
        <ele>73</ele>
        <time>2022-08-09T18:13:44Z</time>
      </trkpt>
      <trkpt lat="44.10202" lon="1.08262">
        <ele>73</ele>
        <time>2022-08-09T18:13:45Z</time>
      </trkpt>
      <trkpt lat="44.10192" lon="1.0836">
        <ele>72</ele>
        <time>2022-08-09T18:13:58Z</time>
      </trkpt>
      <trkpt lat="44.10151" lon="1.08508">
        <ele>72</ele>
        <time>2022-08-09T18:14:18Z</time>
      </trkpt>
      <trkpt lat="44.10179" lon="1.08524">
        <ele>74</ele>
        <time>2022-08-09T18:14:23Z</time>
      </trkpt>
      <trkpt lat="44.10124" lon="1.08716">
        <ele>71</ele>
        <time>2022-08-09T18:14:50Z</time>
      </trkpt>
      <trkpt lat="44.10112" lon="1.08737">
        <ele>71</ele>
        <time>2022-08-09T18:14:53Z</time>
      </trkpt>
      <trkpt lat="44.10136" lon="1.08752">
        <ele>71</ele>
        <time>2022-08-09T18:14:58Z</time>
      </trkpt>
      <trkpt lat="44.1014" lon="1.08755">
        <ele>71</ele>
        <time>2022-08-09T18:14:58Z</time>
      </trkpt>
      <trkpt lat="44.1014" lon="1.08765">
        <ele>72</ele>
        <time>2022-08-09T18:15:00Z</time>
      </trkpt>
      <trkpt lat="44.10146" lon="1.08772">
        <ele>72</ele>
        <time>2022-08-09T18:15:01Z</time>
      </trkpt>
      <trkpt lat="44.10153" lon="1.08778">
        <ele>72</ele>
        <time>2022-08-09T18:15:03Z</time>
      </trkpt>
      <trkpt lat="44.10168" lon="1.08786">
        <ele>73</ele>
        <time>2022-08-09T18:15:05Z</time>
      </trkpt>
      <trkpt lat="44.10172" lon="1.08783">
        <ele>73</ele>
        <time>2022-08-09T18:15:06Z</time>
      </trkpt>
      <trkpt lat="44.10175" lon="1.08777">
        <ele>73</ele>
        <time>2022-08-09T18:15:07Z</time>
      </trkpt>
      <trkpt lat="44.10174" lon="1.08772">
        <ele>73</ele>
        <time>2022-08-09T18:15:08Z</time>
      </trkpt>
      <trkpt lat="44.10163" lon="1.08762">
        <ele>72</ele>
        <time>2022-08-09T18:15:10Z</time>
      </trkpt>
      <trkpt lat="44.10164" lon="1.08752">
        <ele>72</ele>
        <time>2022-08-09T18:15:12Z</time>
      </trkpt>
      <trkpt lat="44.10177" lon="1.08715">
        <ele>73</ele>
        <time>2022-08-09T18:15:17Z</time>
      </trkpt>
      <trkpt lat="44.10214" lon="1.08641">
        <ele>74</ele>
        <time>2022-08-09T18:15:28Z</time>
      </trkpt>
      <trkpt lat="44.10221" lon="1.08632">
        <ele>74</ele>
        <time>2022-08-09T18:15:30Z</time>
      </trkpt>
      <trkpt lat="44.10218" lon="1.08622">
        <ele>74</ele>
        <time>2022-08-09T18:15:31Z</time>
      </trkpt>
      <trkpt lat="44.10205" lon="1.0855">
        <ele>75</ele>
        <time>2022-08-09T18:15:41Z</time>
      </trkpt>
      <trkpt lat="44.10204" lon="1.08534">
        <ele>75</ele>
        <time>2022-08-09T18:15:43Z</time>
      </trkpt>
      <trkpt lat="44.10208" lon="1.08504">
        <ele>75</ele>
        <time>2022-08-09T18:15:47Z</time>
      </trkpt>
      <trkpt lat="44.10234" lon="1.0842">
        <ele>74</ele>
        <time>2022-08-09T18:15:59Z</time>
      </trkpt>
      <trkpt lat="44.1026" lon="1.08327">
        <ele>74</ele>
        <time>2022-08-09T18:16:11Z</time>
      </trkpt>
      <trkpt lat="44.10267" lon="1.08261">
        <ele>75</ele>
        <time>2022-08-09T18:16:20Z</time>
      </trkpt>
      <trkpt lat="44.10256" lon="1.08255">
        <ele>74</ele>
        <time>2022-08-09T18:16:22Z</time>
      </trkpt>
      <trkpt lat="44.10188" lon="1.08007">
        <ele>73</ele>
        <time>2022-08-09T18:16:56Z</time>
      </trkpt>
      <trkpt lat="44.10227" lon="1.07984">
        <ele>74</ele>
        <time>2022-08-09T18:17:03Z</time>
      </trkpt>
      <trkpt lat="44.10236" lon="1.08007">
        <ele>74</ele>
        <time>2022-08-09T18:17:07Z</time>
      </trkpt>
      <trkpt lat="44.10283" lon="1.07967">
        <ele>78</ele>
        <time>2022-08-09T18:17:16Z</time>
      </trkpt>
      <trkpt lat="44.10315" lon="1.07945">
        <ele>81</ele>
        <time>2022-08-09T18:17:23Z</time>
      </trkpt>
      <trkpt lat="44.10337" lon="1.0793">
        <ele>85</ele>
        <time>2022-08-09T18:17:27Z</time>
      </trkpt>
      <trkpt lat="44.10364" lon="1.07926">
        <ele>94</ele>
        <time>2022-08-09T18:17:32Z</time>
      </trkpt>
      <trkpt lat="44.10385" lon="1.07904">
        <ele>102</ele>
        <time>2022-08-09T18:17:37Z</time>
      </trkpt>
      <trkpt lat="44.10398" lon="1.07877">
        <ele>109</ele>
        <time>2022-08-09T18:17:41Z</time>
      </trkpt>
      <trkpt lat="44.10423" lon="1.07865">
        <ele>118</ele>
        <time>2022-08-09T18:17:46Z</time>
      </trkpt>
      <trkpt lat="44.10528" lon="1.07806">
        <ele>148</ele>
        <time>2022-08-09T18:18:06Z</time>
      </trkpt>
      <trkpt lat="44.10598" lon="1.07776">
        <ele>156</ele>
        <time>2022-08-09T18:18:19Z</time>
      </trkpt>
      <trkpt lat="44.1063" lon="1.07772">
        <ele>158</ele>
        <time>2022-08-09T18:18:24Z</time>
      </trkpt>
      <trkpt lat="44.10655" lon="1.07781">
        <ele>159</ele>
        <time>2022-08-09T18:18:29Z</time>
      </trkpt>
      <trkpt lat="44.10637" lon="1.07828">
        <ele>159</ele>
        <time>2022-08-09T18:18:36Z</time>
      </trkpt>
      <trkpt lat="44.10616" lon="1.07886">
        <ele>154</ele>
        <time>2022-08-09T18:18:44Z</time>
      </trkpt>
      <trkpt lat="44.10602" lon="1.07911">
        <ele>153</ele>
        <time>2022-08-09T18:18:48Z</time>
      </trkpt>
      <trkpt lat="44.10584" lon="1.07937">
        <ele>150</ele>
        <time>2022-08-09T18:18:53Z</time>
      </trkpt>
      <trkpt lat="44.10545" lon="1.07979">
        <ele>143</ele>
        <time>2022-08-09T18:19:02Z</time>
      </trkpt>
      <trkpt lat="44.10537" lon="1.07998">
        <ele>142</ele>
        <time>2022-08-09T18:19:04Z</time>
      </trkpt>
      <trkpt lat="44.10535" lon="1.08018">
        <ele>140</ele>
        <time>2022-08-09T18:19:07Z</time>
      </trkpt>
      <trkpt lat="44.10536" lon="1.08084">
        <ele>133</ele>
        <time>2022-08-09T18:19:15Z</time>
      </trkpt>
      <trkpt lat="44.10547" lon="1.08123">
        <ele>128</ele>
        <time>2022-08-09T18:19:21Z</time>
      </trkpt>
      <trkpt lat="44.10543" lon="1.0813">
        <ele>126</ele>
        <time>2022-08-09T18:19:22Z</time>
      </trkpt>
      <trkpt lat="44.10551" lon="1.08159">
        <ele>123</ele>
        <time>2022-08-09T18:19:26Z</time>
      </trkpt>
      <trkpt lat="44.10564" lon="1.0819">
        <ele>119</ele>
        <time>2022-08-09T18:19:30Z</time>
      </trkpt>
      <trkpt lat="44.10569" lon="1.08191">
        <ele>120</ele>
        <time>2022-08-09T18:19:31Z</time>
      </trkpt>
      <trkpt lat="44.10619" lon="1.08162">
        <ele>119</ele>
        <time>2022-08-09T18:19:41Z</time>
      </trkpt>
      <trkpt lat="44.10624" lon="1.08164">
        <ele>118</ele>
        <time>2022-08-09T18:19:42Z</time>
      </trkpt>
      <trkpt lat="44.10648" lon="1.08232">
        <ele>106</ele>
        <time>2022-08-09T18:19:52Z</time>
      </trkpt>
    </trkseg>
  </trk>
</gpx>